<- Previous Day | Today | Next Day ->

All Data for 15 September 2021

 

Time A - D Temp A - D Dew Point A - D Humidity A - D Pressure A - D Wind A - D Wind Dir Gust A - D Rain Rate A - D Rain Total
00:00 14.6 13.2 91 1013.8 2.2 NE 3.8 0.0 0.0
00:01 14.6 13.2 91 1013.6 4.5 NE 4.5 0.0 0.0
00:02 14.6 13.2 91 1013.6 2.2 E 4.5 0.0 0.0
00:03 14.6 13.2 91 1013.6 2.2 N 4.5 0.0 0.0
00:04 14.6 13.2 91 1013.7 3.1 N 4.5 0.0 0.0
00:05 14.6 13.2 91 1013.6 3.1 E 4.5 0.0 0.0
00:06 14.6 13.2 91 1014.0 3.8 NE 4.5 0.0 0.0
00:07 14.6 13.2 91 1013.5 3.1 NE 4.5 0.0 0.0
00:08 14.6 13.2 91 1013.6 2.2 N 4.5 0.0 0.0
00:09 14.6 13.2 91 1013.7 2.2 N 4.5 0.0 0.0
00:10 14.6 13.3 92 1013.8 3.1 NE 4.5 0.0 0.0
00:11 14.6 13.3 92 1013.6 3.1 NE 4.5 0.0 0.0
00:12 14.6 13.3 92 1013.8 3.8 NE 3.8 0.0 0.0
00:13 14.7 13.4 92 1013.6 3.8 N 3.8 0.0 0.0
00:14 14.7 13.4 92 1013.6 3.1 NE 3.8 0.0 0.0
00:15 14.7 13.4 92 1013.5 2.2 N 3.8 0.0 0.0
00:16 14.7 13.4 92 1013.5 2.2 N 3.8 0.0 0.0
00:18 14.7 13.4 92 1013.8 3.1 N 3.8 0.0 0.0
00:19 14.6 13.3 92 1013.7 3.1 NE 3.8 0.0 0.0
00:20 14.6 13.3 92 1013.5 3.1 NE 3.8 0.0 0.0
00:21 14.6 13.3 92 1013.8 2.2 NE 3.8 0.0 0.0
00:22 14.6 13.3 92 1013.8 2.2 NE 3.8 0.0 0.0
00:23 14.6 13.3 92 1013.9 2.2 NW 3.8 0.0 0.0
00:24 14.6 13.3 92 1013.7 3.1 N 3.1 0.0 0.0
00:25 14.7 13.4 92 1013.8 3.8 N 3.8 0.0 0.0
00:26 14.7 13.4 92 1013.6 4.5 NE 4.5 0.0 0.0
00:27 14.7 13.4 92 1013.7 4.5 N 4.5 0.0 0.0
00:28 14.7 13.4 92 1013.7 3.8 NE 4.5 0.0 0.0
00:29 14.7 13.4 92 1013.8 3.1 NE 4.5 0.0 0.0
00:30 14.7 13.4 92 1013.7 3.8 NW 4.5 0.0 0.0
00:31 14.7 13.4 92 1013.8 5.4 N 5.4 0.0 0.0
00:32 14.7 13.6 93 1013.7 2.2 N 5.4 0.0 0.0
00:33 14.7 13.6 93 1013.6 2.2 N 5.4 0.0 0.0
00:37 14.7 13.6 93 1013.7 1.6 N 5.4 0.0 0.0
00:38 14.7 13.6 93 1013.7 2.2 N 5.4 0.0 0.0
00:39 14.7 13.6 93 1013.7 3.8 N 5.4 0.0 0.0
00:40 14.7 13.6 93 1013.7 3.1 E 5.4 0.0 0.0
00:42 14.7 13.6 93 1013.7 3.1 N 3.8 0.0 0.0
00:43 14.7 13.6 93 1013.7 1.6 N 3.8 0.0 0.0
00:44 14.7 13.6 93 1013.7 1.6 N 3.8 0.0 0.0
00:45 14.7 13.6 93 1013.6 2.2 NE 3.8 0.0 0.0
00:46 14.7 13.6 93 1013.6 2.2 NE 3.8 0.0 0.0
00:47 14.7 13.6 93 1013.5 3.1 NE 3.8 0.0 0.0
00:48 14.7 13.6 93 1013.5 3.8 E 3.8 0.0 0.0
00:49 14.7 13.6 93 1013.6 3.1 E 3.8 0.0 0.0
00:50 14.7 13.6 93 1013.5 3.1 E 3.8 0.0 0.0
00:51 14.7 13.6 93 1013.6 3.1 NE 3.8 0.0 0.0
00:52 14.6 13.5 93 1013.6 2.2 N 3.8 0.0 0.0
00:53 14.6 13.5 93 1013.5 2.2 N 3.8 0.0 0.0
00:55 14.6 13.5 93 1013.5 1.6 NE 3.8 0.0 0.0
00:56 14.6 13.5 93 1013.7 2.2 E 3.8 0.0 0.0
00:57 14.6 13.5 93 1013.5 2.2 E 3.8 0.0 0.0
00:58 14.6 13.5 93 1013.5 2.2 E 3.8 0.0 0.0
00:59 14.6 13.5 93 1013.3 2.2 NE 3.1 0.0 0.0
01:00 14.6 13.5 93 1013.2 3.1 SE 3.1 0.0 0.0
01:01 14.6 13.5 93 1013.4 3.1 SE 3.1 0.0 0.0
01:02 14.6 13.5 93 1013.2 3.1 SE 3.1 0.0 0.0
01:03 14.6 13.5 93 1013.3 3.1 SE 3.1 0.0 0.0
01:04 14.6 13.5 93 1013.5 3.1 SE 3.1 0.0 0.0
01:05 14.6 13.5 93 1013.4 3.1 SE 3.1 0.0 0.0
01:06 14.5 13.4 93 1013.5 2.2 E 3.1 0.0 0.0
01:07 14.5 13.4 93 1013.2 3.1 E 3.1 0.0 0.0
01:08 14.5 13.4 93 1013.4 3.1 NE 3.1 0.0 0.0
01:09 14.5 13.4 93 1013.4 2.2 N 3.1 0.0 0.0
01:11 14.5 13.4 93 1013.6 2.2 E 3.1 0.0 0.0
01:12 14.5 13.4 93 1013.5 2.2 NE 3.1 0.0 0.0
01:13 14.5 13.4 93 1013.6 2.2 NE 3.1 0.0 0.0
01:14 14.4 13.3 93 1013.5 3.1 N 3.1 0.0 0.0
01:15 14.4 13.3 93 1013.5 1.6 NE 3.1 0.0 0.0
01:16 14.4 13.3 93 1013.3 3.1 NE 3.1 0.0 0.0
01:17 14.4 13.3 93 1013.4 1.6 N 3.1 0.0 0.0
01:18 14.4 13.3 93 1013.3 1.6 N 3.1 0.0 0.0
01:19 14.4 13.5 94 1013.3 2.2 NE 3.1 0.0 0.0
01:20 14.4 13.5 94 1013.2 2.2 E 3.1 0.0 0.0
01:21 14.4 13.5 94 1013.4 3.1 NE 3.1 0.0 0.0
01:22 14.4 13.5 94 1013.4 3.1 NE 3.1 0.0 0.0
01:23 14.4 13.5 94 1013.3 3.1 NE 3.1 0.0 0.0
01:25 14.4 13.5 94 1013.4 2.2 NE 3.1 0.0 0.0
01:26 14.4 13.5 94 1013.5 2.2 N 3.1 0.0 0.0
01:27 14.4 13.5 94 1013.5 2.2 N 3.1 0.0 0.0
01:28 14.4 13.5 94 1013.4 2.2 N 3.1 0.0 0.0
01:29 14.4 13.5 94 1013.4 2.2 E 3.1 0.0 0.0
01:30 14.4 13.5 94 1013.4 2.2 NE 3.1 0.0 0.0
01:31 14.4 13.5 94 1013.4 3.1 E 3.1 0.0 0.0
01:32 14.4 13.5 94 1013.4 3.1 NE 3.1 0.0 0.0
01:33 14.4 13.5 94 1013.4 3.1 NE 3.1 0.0 0.0
01:34 14.4 13.5 94 1013.6 2.2 NE 3.1 0.0 0.0
01:35 14.4 13.5 94 1013.3 2.2 E 3.1 0.0 0.0
01:36 14.4 13.5 94 1013.3 2.2 NE 3.1 0.0 0.0
01:37 14.4 13.5 94 1013.2 1.6 NE 3.1 0.0 0.0
01:39 14.3 13.4 94 1013.4 2.2 NE 3.1 0.0 0.0
01:40 14.3 13.4 94 1013.3 2.2 NE 3.1 0.0 0.0
01:41 14.3 13.4 94 1013.4 3.1 N 3.1 0.0 0.0
01:42 14.3 13.4 94 1013.3 1.6 NE 3.1 0.0 0.0
01:43 14.3 13.4 94 1013.3 1.6 NE 3.1 0.0 0.0
01:44 14.3 13.4 94 1013.4 2.2 NE 3.1 0.0 0.0
01:45 14.3 13.4 94 1013.2 3.1 NE 3.1 0.0 0.0
01:46 14.3 13.4 94 1013.3 2.2 NE 3.1 0.0 0.0
01:47 14.2 13.3 94 1013.4 2.2 NE 3.1 0.0 0.0
01:48 14.2 13.3 94 1013.2 2.2 N 3.1 0.0 0.0
01:49 14.2 13.3 94 1013.5 1.6 N 3.1 0.0 0.0
01:50 14.2 13.3 94 1013.5 0.7 NE 3.1 0.0 0.0
01:51 14.1 13.2 94 1013.6 0.7 N 3.1 0.0 0.0
01:53 14.1 13.2 94 1013.4 0.7 NE 3.1 0.0 0.0
01:54 14.1 13.2 94 1013.6 2.2 E 3.1 0.0 0.0
01:55 14.1 13.2 94 1013.6 2.2 E 3.1 0.0 0.0
01:56 14.1 13.2 94 1013.5 1.6 NE 2.2 0.0 0.0
01:57 14.1 13.2 94 1013.4 0.7 NE 2.2 0.0 0.0
01:58 14.1 13.2 94 1013.5 0.7 NNE 2.2 0.0 0.0
01:59 14.1 13.2 94 1013.5 2.2 N 2.2 0.0 0.0
02:00 14.1 13.2 94 1013.3 0.0 NE 2.2 0.0 0.0
02:01 14.1 13.2 94 1013.6 0.0 NE 2.2 0.0 0.0
02:02 14.1 13.2 94 1013.3 2.2 NE 2.2 0.0 0.0
02:03 14.0 13.1 94 1013.3 2.2 E 2.2 0.0 0.0
02:04 14.0 13.1 94 1013.5 2.2 NE 2.2 0.0 0.0
02:05 14.0 13.1 94 1013.3 2.2 NE 2.2 0.0 0.0
02:07 14.0 13.1 94 1013.3 3.1 NE 3.1 0.0 0.0
02:08 14.0 13.1 94 1013.3 3.1 E 3.1 0.0 0.0
02:09 14.0 13.1 94 1013.6 3.1 NE 3.1 0.0 0.0
02:10 14.0 13.1 94 1013.6 3.1 NE 3.1 0.0 0.0
02:11 14.0 13.1 94 1013.4 2.2 E 3.1 0.0 0.0
02:12 14.0 13.1 94 1013.3 3.1 N 3.1 0.0 0.0
02:13 14.0 13.1 94 1013.4 3.1 NE 3.1 0.0 0.0
02:14 14.0 13.1 94 1013.3 3.1 NE 3.1 0.0 0.0
02:15 14.0 13.1 94 1013.5 3.1 NE 3.1 0.0 0.0
02:16 14.0 13.1 94 1013.2 1.6 N 3.1 0.0 0.0
02:17 13.9 13.0 94 1013.2 1.6 NE 3.1 0.0 0.0
02:18 13.9 13.0 94 1013.4 1.6 N 3.1 0.0 0.0
02:19 13.9 13.0 94 1013.4 1.6 N 3.1 0.0 0.0
02:21 13.9 13.0 94 1013.3 1.6 N 3.1 0.0 0.0
02:22 13.9 13.0 94 1013.3 1.6 NE 3.1 0.0 0.0
02:23 13.9 13.0 94 1013.3 1.6 NE 3.1 0.0 0.0
02:24 13.9 13.0 94 1013.5 0.0 NW 3.1 0.0 0.0
02:25 13.9 13.0 94 1013.5 0.7 NE 3.1 0.0 0.0
02:26 13.9 13.0 94 1013.4 0.7 N 1.6 0.0 0.0
02:27 13.8 12.9 94 1013.5 0.7 NE 1.6 0.0 0.0
02:28 13.8 12.9 94 1013.4 0.7 N 1.6 0.0 0.0
02:29 13.8 12.9 94 1013.4 0.7 E 1.6 0.0 0.0
02:30 13.8 12.9 94 1013.2 1.6 N 1.6 0.0 0.0
02:31 13.8 12.9 94 1013.3 2.2 NE 2.2 0.0 0.0
02:32 13.8 12.9 94 1013.4 3.1 NE 3.1 0.0 0.0
02:33 13.8 12.9 94 1013.3 2.2 NE 3.1 0.0 0.0
02:35 13.8 12.9 94 1013.6 1.6 NE 3.1 0.0 0.0
02:36 13.8 12.9 94 1013.4 1.6 NE 3.1 0.0 0.0
02:37 13.7 12.8 94 1013.4 0.7 NE 3.1 0.0 0.0
02:38 13.7 12.8 94 1013.3 0.7 NW 3.1 0.0 0.0
02:39 13.7 12.8 94 1013.5 0.7 NW 3.1 0.0 0.0
02:40 13.7 12.8 94 1013.6 0.7 N 3.1 0.0 0.0
02:41 13.7 12.8 94 1013.3 0.7 N 3.1 0.0 0.0
02:42 13.7 12.8 94 1013.5 2.2 N 3.1 0.0 0.0
02:43 13.7 12.8 94 1013.5 1.6 NE 2.2 0.0 0.0
02:44 13.7 12.8 94 1013.5 0.7 N 2.2 0.0 0.0
02:45 13.7 12.8 94 1013.5 0.7 NE 2.2 0.0 0.0
02:46 13.7 12.8 94 1013.4 2.2 N 2.2 0.0 0.0
02:47 13.7 12.8 94 1013.5 1.6 N 2.2 0.0 0.0
02:49 13.7 12.8 94 1013.6 3.1 N 3.1 0.0 0.0
02:50 13.7 12.8 94 1013.4 1.6 N 3.1 0.0 0.0
02:51 13.7 12.8 94 1013.4 1.6 N 3.1 0.0 0.0
02:52 13.7 12.8 94 1013.7 1.6 NE 3.1 0.0 0.0
02:53 13.7 12.8 94 1013.5 1.6 NE 3.1 0.0 0.0
02:54 13.7 12.8 94 1013.6 1.6 E 3.1 0.0 0.0
02:55 13.7 12.8 94 1013.5 1.6 E 3.1 0.0 0.0
02:56 13.7 12.8 94 1013.5 1.6 NE 3.1 0.0 0.0
02:57 13.7 12.8 94 1013.5 1.6 NE 3.1 0.0 0.0
02:58 13.7 12.8 94 1013.7 2.2 NE 3.1 0.0 0.0
02:59 13.7 12.8 94 1013.6 2.2 E 3.1 0.0 0.0
03:00 13.7 12.8 94 1013.6 2.2 E 2.2 0.0 0.0
03:01 13.7 12.8 94 1013.6 2.2 E 2.2 0.0 0.0
03:03 13.7 12.8 94 1013.6 2.2 E 2.2 0.0 0.0
03:04 13.7 12.8 94 1013.5 2.2 E 2.2 0.0 0.0
03:05 13.7 12.8 94 1013.6 2.2 E 2.2 0.0 0.0
03:06 13.7 12.8 94 1013.6 2.2 E 2.2 0.0 0.0
03:07 13.7 12.8 94 1013.5 2.2 NE 2.2 0.0 0.0
03:08 13.7 12.8 94 1013.5 2.2 N 2.2 0.0 0.0
03:09 13.7 12.8 94 1013.7 2.2 N 2.2 0.0 0.0
03:10 13.7 12.8 94 1013.5 1.6 N 2.2 0.0 0.0
03:11 13.7 12.8 94 1013.4 1.6 NE 2.2 0.0 0.0
03:12 13.7 12.8 94 1013.5 2.2 NE 2.2 0.0 0.0
03:13 13.7 12.8 94 1013.5 1.6 NE 2.2 0.0 0.0
03:14 13.7 12.8 94 1013.5 1.6 NE 2.2 0.0 0.0
03:15 13.7 12.8 94 1013.7 2.2 N 2.2 0.0 0.0
03:16 13.7 12.8 94 1013.7 3.1 NW 3.1 0.0 0.0
03:18 13.7 12.8 94 1013.6 3.1 N 3.1 0.0 0.0
03:19 13.7 12.8 94 1013.5 3.8 NE 3.8 0.0 0.0
03:20 13.7 12.8 94 1013.4 2.2 N 3.8 0.0 0.0
03:21 13.7 12.8 94 1013.3 3.8 NE 3.8 0.0 0.0
03:22 13.7 12.8 94 1013.4 3.8 NE 3.8 0.0 0.0
03:23 13.8 12.9 94 1013.5 4.5 NW 4.5 0.0 0.0
03:24 13.8 12.9 94 1013.7 3.1 NE 4.5 0.0 0.0
03:25 13.8 12.9 94 1013.5 3.8 N 4.5 0.0 0.0
03:26 13.8 12.9 94 1013.7 3.1 N 4.5 0.0 0.0
03:27 13.9 13.0 94 1013.4 3.1 N 4.5 0.0 0.0
03:28 13.9 13.0 94 1013.6 3.1 N 4.5 0.0 0.0
03:29 13.9 13.0 94 1013.5 3.1 NE 4.5 0.0 0.0
03:30 13.9 13.0 94 1013.6 1.6 NE 4.5 0.0 0.0
03:32 13.9 13.0 94 1013.3 0.7 NW 4.5 0.0 0.0
03:33 13.9 13.0 94 1013.6 3.1 NW 4.5 0.0 0.0
03:34 13.9 13.0 94 1013.6 3.1 NW 4.5 0.0 0.0
03:35 13.9 13.0 94 1013.5 2.2 N 4.5 0.0 0.0
03:36 13.9 13.0 94 1013.3 2.2 N 4.5 0.0 0.0
03:37 13.9 13.0 94 1013.5 3.1 NE 3.1 0.0 0.0
03:38 13.9 13.0 94 1013.5 2.2 NW 3.1 0.0 0.0
03:39 13.9 13.1 95 1013.3 3.1 NW 3.1 0.0 0.0
03:40 13.9 13.1 95 1013.4 2.2 NW 3.1 0.0 0.0
03:41 13.9 13.1 95 1013.4 3.1 N 3.1 0.0 0.0
03:42 13.9 13.1 95 1013.4 3.1 N 3.1 0.0 0.0
03:43 13.9 13.1 95 1013.4 3.8 N 3.8 0.0 0.0
03:44 13.9 13.1 95 1013.6 3.8 N 3.8 0.0 0.0
03:46 14.0 13.2 95 1013.4 3.8 N 3.8 0.0 0.0
03:47 14.0 13.2 95 1013.5 2.2 NW 3.8 0.0 0.0
03:48 14.0 13.2 95 1013.3 2.2 NW 3.8 0.0 0.0
03:49 14.0 13.2 95 1013.5 2.2 NW 3.8 0.0 0.0
03:50 14.0 13.2 95 1013.3 3.1 N 3.8 0.0 0.0
03:51 14.0 13.2 95 1013.4 2.2 N 3.8 0.0 0.0
03:52 14.0 13.2 95 1013.2 2.2 N 3.8 0.0 0.0
03:53 14.0 13.2 95 1013.4 3.1 N 3.8 0.0 0.0
03:54 14.0 13.2 95 1013.1 3.1 N 3.8 0.0 0.0
03:55 14.0 13.2 95 1013.3 2.2 NE 3.8 0.0 0.0
03:56 14.0 13.2 95 1013.2 3.1 NE 3.8 0.0 0.0
03:57 14.0 13.2 95 1013.3 1.6 N 3.1 0.0 0.0
03:59 14.0 13.2 95 1013.1 2.2 N 3.1 0.0 0.0
04:00 14.0 13.2 95 1013.4 2.2 N 3.1 0.0 0.0
04:01 14.0 13.2 95 1013.3 1.6 N 3.1 0.0 0.0
04:02 14.0 13.2 95 1013.3 1.6 N 3.1 0.0 0.0
04:03 14.0 13.2 95 1013.5 2.2 NE 3.1 0.0 0.0
04:04 14.0 13.2 95 1013.2 3.1 N 3.1 0.0 0.0
04:05 14.0 13.2 95 1013.3 3.1 N 3.1 0.0 0.0
04:06 14.0 13.2 95 1013.2 3.1 NW 3.1 0.0 0.0
04:07 14.0 13.2 95 1013.4 3.1 N 4.5 0.0 0.0
04:08 14.0 13.2 95 1013.4 3.1 N 4.5 0.0 0.0
04:09 14.0 13.2 95 1013.2 3.1 N 4.5 0.0 0.0
04:10 14.0 13.2 95 1013.3 3.1 N 4.5 0.0 0.0
04:11 14.0 13.2 95 1013.1 3.8 NW 4.5 0.0 0.0
04:12 14.0 13.2 95 1013.3 3.8 NE 4.5 0.0 0.0
04:14 14.0 13.2 95 1013.1 3.8 WNW 4.5 0.0 0.0
04:15 14.1 13.3 95 1013.2 3.8 NW 4.5 0.0 0.0
04:16 14.1 13.3 95 1013.2 3.8 NW 4.5 0.0 0.0
04:17 14.1 13.3 95 1013.2 3.8 N 3.8 0.0 0.0
04:18 14.1 13.3 95 1013.2 3.8 NW 3.8 0.0 0.0
04:19 14.1 13.3 95 1013.2 3.8 NE 3.8 0.0 0.0
04:20 14.1 13.3 95 1013.5 3.8 N 3.8 0.0 0.0
04:21 14.1 13.3 95 1013.4 3.8 N 3.8 0.0 0.0
04:22 14.1 13.3 95 1013.1 3.1 NE 3.8 0.0 0.0
04:23 14.1 13.5 96 1013.2 3.8 N 3.8 0.0 0.0
04:24 14.1 13.5 96 1013.5 4.5 N 4.5 0.0 0.0
04:25 14.1 13.5 96 1013.3 4.5 NE 4.5 0.0 0.0
04:26 14.1 13.5 96 1013.2 5.4 N 5.4 0.0 0.0
04:28 14.1 13.5 96 1013.2 3.8 NE 5.4 0.0 0.0
04:29 14.1 13.5 96 1013.3 5.4 NE 5.4 0.0 0.0
04:30 14.1 13.5 96 1013.3 5.4 NE 5.4 0.0 0.0
04:31 14.2 13.6 96 1013.3 3.1 NW 5.4 0.0 0.0
04:32 14.2 13.6 96 1013.3 3.8 NW 5.4 0.0 0.0
04:33 14.2 13.6 96 1013.5 3.8 N 5.4 0.0 0.0
04:34 14.2 13.6 96 1013.3 3.8 N 5.4 0.0 0.0
04:35 14.2 13.6 96 1013.5 3.1 N 5.4 0.0 0.0
04:36 14.3 13.7 96 1013.2 4.5 NW 5.4 0.0 0.0
04:37 14.3 13.7 96 1013.5 4.5 NW 5.4 0.0 0.0
04:38 14.3 13.7 96 1013.6 3.8 N 5.4 0.0 0.0
04:39 14.3 13.7 96 1013.4 3.8 N 5.4 0.0 0.0
04:40 14.3 13.7 96 1013.5 3.8 N 5.4 0.0 0.0
04:42 14.3 13.7 96 1013.5 3.8 NW 4.5 0.0 0.0
04:43 14.3 13.7 96 1013.5 2.2 NW 4.5 0.0 0.0
04:44 14.3 13.7 96 1013.5 4.5 NW 4.5 0.0 0.0
04:45 14.3 13.7 96 1013.4 4.5 NW 4.5 0.0 0.0
04:46 14.3 13.7 96 1013.5 2.2 N 4.5 0.0 0.0
04:47 14.3 13.7 96 1013.2 4.5 NW 4.5 0.0 0.0
04:48 14.3 13.7 96 1013.5 4.5 NW 4.5 0.0 0.0
04:49 14.3 13.7 96 1013.5 3.8 NW 4.5 0.0 0.0
04:50 14.3 13.7 96 1013.7 3.8 N 4.5 0.0 0.0
04:51 14.3 13.7 96 1013.5 3.8 N 4.5 0.0 0.0
04:52 14.3 13.8 97 1013.7 3.8 N 4.5 0.0 0.0
04:53 14.3 13.8 97 1013.6 3.1 NE 4.5 0.0 0.0
04:54 14.3 13.8 97 1013.5 3.1 N 4.5 0.0 0.0
04:55 14.3 13.8 97 1013.6 2.2 N 4.5 0.0 0.0
04:57 14.3 13.8 97 1013.7 3.1 N 4.5 0.0 0.0
04:58 14.3 13.8 97 1013.7 2.2 N 4.5 0.0 0.0
04:59 14.3 13.8 97 1013.6 2.2 N 3.8 0.0 0.0
05:00 14.3 13.8 97 1013.7 2.2 N 3.8 0.0 0.0
05:01 14.3 13.8 97 1013.7 2.2 N 3.8 0.0 0.0
05:02 14.3 13.8 97 1013.6 2.2 N 3.8 0.0 0.0
05:03 14.3 13.8 97 1013.7 2.2 N 3.1 0.0 0.0
05:04 14.3 13.8 97 1013.8 2.2 N 3.1 0.0 0.0
05:05 14.3 13.8 97 1013.5 2.2 N 3.1 0.0 0.0
05:06 14.3 13.8 97 1013.6 2.2 N 3.1 0.0 0.0
05:07 14.3 13.8 97 1013.5 3.1 N 3.1 0.0 0.0
05:08 14.3 13.8 97 1013.5 1.6 N 3.1 0.0 0.0
05:09 14.3 13.8 97 1013.6 2.2 NE 3.1 0.0 0.0
05:10 14.3 13.8 97 1013.3 2.2 NE 3.1 0.0 0.0
05:12 14.3 13.8 97 1013.5 3.8 N 3.8 0.0 0.0
05:13 14.2 13.7 97 1013.6 2.2 NW 3.8 0.0 0.0
05:14 14.2 13.7 97 1013.6 2.2 NW 3.8 0.0 0.0
05:15 14.2 13.7 97 1013.5 1.6 N 3.8 0.0 0.0
05:16 14.2 13.7 97 1013.7 1.6 E 3.8 0.0 0.0
05:17 14.2 13.7 97 1013.5 1.6 NE 3.8 0.0 0.0
05:18 14.2 13.7 97 1013.5 0.7 N 3.8 0.0 0.0
05:19 14.2 13.7 97 1013.5 1.6 NE 3.8 0.0 0.0
05:20 14.2 13.7 97 1013.6 1.6 N 3.8 0.0 0.0
05:21 14.2 13.7 97 1013.6 1.6 E 3.8 0.0 0.0
05:22 14.2 13.7 97 1013.5 0.7 SW 3.8 0.0 0.0
05:23 14.2 13.7 97 1013.6 0.7 NW 2.2 0.0 0.0
05:24 14.1 13.6 97 1013.5 2.2 N 2.2 0.0 0.0
05:26 14.1 13.6 97 1013.7 1.6 W 2.2 0.0 0.0
05:27 14.1 13.6 97 1013.6 1.6 NW 2.2 0.0 0.0
05:28 14.1 13.6 97 1013.6 0.7 NW 2.2 0.0 0.0
05:29 14.1 13.6 97 1013.6 0.7 NE 2.2 0.0 0.0
05:30 14.1 13.6 97 1013.7 1.6 NE 2.2 0.0 0.0
05:31 14.1 13.6 97 1013.8 0.7 E 2.2 0.0 0.0
05:32 14.1 13.6 97 1013.7 2.2 NE 2.2 0.0 0.0
05:33 14.1 13.6 97 1013.4 4.5 NE 4.5 0.0 0.0
05:34 14.1 13.6 97 1013.7 3.8 NE 4.5 0.0 0.0
05:35 14.1 13.6 97 1013.6 1.6 E 4.5 0.0 0.0
05:36 14.1 13.6 97 1013.7 1.6 E 4.5 0.0 0.0
05:37 14.0 13.5 97 1013.6 2.2 N 4.5 0.0 0.0
05:38 14.0 13.5 97 1013.8 2.2 N 4.5 0.0 0.0
05:40 14.1 13.6 97 1013.8 2.2 N 4.5 0.0 0.0
05:41 14.1 13.6 97 1013.6 1.6 N 4.5 0.0 0.0
05:42 14.1 13.6 97 1013.6 1.6 N 4.5 0.0 0.0
05:43 14.1 13.6 97 1013.8 0.7 E 4.5 0.0 0.0
05:44 14.0 13.5 97 1014.0 0.7 N 2.2 0.0 0.0
05:45 14.0 13.5 97 1013.7 1.6 N 2.2 0.0 0.0
05:46 14.0 13.5 97 1013.8 1.6 N 2.2 0.0 0.0
05:47 14.0 13.5 97 1013.6 0.7 N 2.2 0.0 0.0
05:48 14.0 13.5 97 1013.6 0.7 W 2.2 0.0 0.0
05:49 14.0 13.5 97 1013.7 3.1 N 3.1 0.0 0.0
05:50 14.0 13.5 97 1013.7 2.2 N 3.1 0.0 0.0
05:51 14.0 13.5 97 1013.6 2.2 NE 3.1 0.0 0.0
05:52 14.0 13.5 97 1013.7 0.7 NW 3.1 0.0 0.0
05:54 14.0 13.5 97 1013.8 1.6 N 3.1 0.0 0.0
05:55 14.0 13.5 97 1013.9 2.2 NW 3.1 0.0 0.0
05:56 14.0 13.5 97 1013.9 3.1 NW 3.1 0.0 0.0
05:57 14.0 13.5 97 1013.9 2.2 SE 3.1 0.0 0.0
05:58 14.0 13.5 97 1013.7 1.6 N 3.1 0.0 0.0
05:59 14.0 13.5 97 1014.0 2.2 N 3.1 0.0 0.0
06:00 14.0 13.5 97 1013.7 1.6 NE 3.1 0.0 0.0
06:01 14.0 13.5 97 1013.8 1.6 NE 3.1 0.0 0.0
06:02 14.1 13.6 97 1013.8 1.6 NE 3.1 0.0 0.0
06:03 14.1 13.6 97 1013.8 2.2 SW 3.1 0.0 0.0
06:04 14.1 13.6 97 1013.7 1.6 N 3.1 0.0 0.0
06:05 14.1 13.6 97 1013.7 2.2 SE 3.1 0.0 0.0
06:06 14.1 13.6 97 1013.9 1.6 N 2.2 0.0 0.0
06:08 14.1 13.6 97 1013.8 3.1 N 3.1 0.0 0.0
06:09 14.1 13.6 97 1013.8 3.1 NW 3.1 0.0 0.0
06:10 14.1 13.6 97 1013.8 3.1 NW 3.1 0.0 0.0
06:11 14.1 13.6 97 1013.7 1.6 N 3.1 0.0 0.0
06:12 14.1 13.6 97 1013.6 2.2 N 3.1 0.0 0.0
06:13 14.1 13.6 97 1013.8 3.1 NW 3.1 0.0 0.0
06:14 14.1 13.6 97 1013.8 1.6 N 3.1 0.0 0.0
06:15 14.1 13.6 97 1013.7 2.2 NW 3.1 0.0 0.0
06:16 14.1 13.6 97 1013.7 2.2 N 3.1 0.0 0.0
06:17 14.1 13.6 97 1013.7 2.2 N 3.1 0.0 0.0
06:18 14.1 13.6 97 1013.8 2.2 NW 3.1 0.0 0.0
06:19 14.1 13.6 97 1013.8 1.6 NW 3.1 0.0 0.0
06:20 14.1 13.6 97 1013.8 1.6 NE 3.1 0.0 0.0
06:22 14.0 13.5 97 1013.9 1.6 NW 3.1 0.0 0.0
06:23 14.0 13.5 97 1013.8 2.2 NW 2.2 0.0 0.0
06:24 14.0 13.5 97 1013.7 1.6 N 2.2 0.0 0.0
06:25 14.0 13.5 97 1013.9 3.1 NW 3.1 0.0 0.0
06:26 14.0 13.5 97 1013.9 3.1 NE 3.1 0.0 0.0
06:27 14.0 13.5 97 1013.8 2.2 NE 3.1 0.0 0.0
06:28 14.0 13.5 97 1013.8 1.6 N 3.1 0.0 0.0
06:29 14.0 13.5 97 1013.9 1.6 NE 3.1 0.0 0.0
06:30 14.0 13.5 97 1013.8 1.6 NE 3.1 0.0 0.0
06:31 14.0 13.5 97 1013.9 1.6 NW 3.1 0.0 0.0
06:32 14.0 13.5 97 1014.0 0.7 N 3.1 0.0 0.0
06:33 13.9 13.4 97 1013.7 0.7 N 3.1 0.0 0.0
06:34 13.9 13.4 97 1013.9 0.7 N 3.1 0.0 0.0
06:36 13.9 13.4 97 1013.7 0.7 NE 2.2 0.0 0.0
06:37 13.9 13.4 97 1013.8 1.6 N 2.2 0.0 0.0
06:38 13.9 13.4 97 1013.8 1.6 N 1.6 0.0 0.0
06:39 13.9 13.4 97 1013.7 1.6 N 2.2 0.0 0.0
06:40 13.9 13.4 97 1013.8 1.6 N 2.2 0.0 0.0
06:41 13.9 13.4 97 1014.0 3.1 NE 3.1 0.0 0.0
06:42 13.9 13.4 97 1014.0 2.2 NW 3.1 0.0 0.0
06:43 13.9 13.4 97 1013.9 3.1 N 3.1 0.0 0.0
06:44 13.9 13.4 97 1013.6 3.8 N 3.8 0.0 0.0
06:45 13.9 13.4 97 1014.0 3.1 N 3.8 0.0 0.0
06:46 13.9 13.4 97 1013.9 1.6 NW 3.8 0.0 0.0
06:47 14.0 13.5 97 1013.9 3.1 NW 3.8 0.0 0.0
06:48 14.0 13.5 97 1013.8 2.2 NW 3.8 0.0 0.0
06:50 14.0 13.7 98 1013.7 2.2 NW 3.8 0.0 0.0
06:51 14.0 13.7 98 1014.1 1.6 N 3.8 0.0 0.0
06:52 14.0 13.7 98 1013.9 1.6 N 3.8 0.0 0.0
06:53 14.0 13.7 98 1014.0 2.2 N 3.8 0.0 0.0
06:54 14.0 13.7 98 1014.1 2.2 NE 3.8 0.0 0.0
06:55 14.0 13.7 98 1014.0 2.2 N 3.8 0.0 0.0
06:56 14.0 13.7 98 1014.0 3.1 NE 3.8 0.0 0.0
06:57 14.0 13.7 98 1014.2 3.1 NE 3.8 0.0 0.0
06:58 14.0 13.7 98 1014.0 2.2 NE 3.8 0.0 0.0
06:59 14.1 13.8 98 1014.2 1.6 NW 3.8 0.0 0.0
07:00 14.1 13.8 98 1014.1 1.6 NW 3.1 0.0 0.0
07:01 14.1 13.8 98 1014.1 1.6 NW 3.1 0.0 0.0
07:02 14.1 13.8 98 1014.1 1.6 NW 3.1 0.0 0.0
07:04 14.1 13.8 98 1014.1 1.6 NW 3.1 0.0 0.0
07:05 14.1 13.8 98 1014.1 1.6 NW 3.1 0.0 0.0
07:06 14.1 13.8 98 1014.1 1.6 NW 3.1 0.0 0.0
07:07 14.0 13.7 98 1014.4 0.0 N 3.1 0.0 0.0
07:08 14.0 13.7 98 1014.4 0.0 N 1.6 0.0 0.0
07:09 14.0 13.7 98 1014.4 0.0 N 1.6 0.0 0.0
07:10 13.9 13.6 98 1014.4 0.0 NNE 1.6 0.0 0.0
07:11 13.9 13.6 98 1014.2 0.0 E 1.6 0.0 0.0
07:12 13.9 13.6 98 1014.2 0.0 N 1.6 0.0 0.0
07:13 13.9 13.6 98 1014.3 0.0 N 1.6 0.0 0.0
07:14 13.8 13.5 98 1014.3 0.0 W 1.6 0.0 0.0
07:15 13.8 13.5 98 1014.1 0.7 SW 1.6 0.0 0.0
07:16 13.8 13.5 98 1014.1 0.7 S 0.7 0.0 0.0
07:17 13.7 13.2 97 1014.4 0.7 SE 0.7 0.0 0.0
07:19 13.7 13.2 97 1014.5 0.7 NE 0.7 0.0 0.0
07:20 13.7 13.2 97 1014.5 0.0 NE 0.7 0.0 0.0
07:21 13.7 13.2 97 1014.4 0.0 NE 0.7 0.0 0.0
07:22 13.7 13.2 97 1014.4 0.0 NE 0.7 0.0 0.0
07:23 13.6 13.1 97 1014.5 0.0 NE 0.7 0.0 0.0
07:24 13.6 13.1 97 1014.3 0.0 NE 0.7 0.0 0.0
07:25 13.6 13.1 97 1014.5 0.7 NE 0.7 0.0 0.0
07:26 13.6 13.1 97 1014.7 0.0 NE 0.7 0.0 0.0
07:27 13.6 13.1 97 1014.3 0.0 NE 0.7 0.0 0.0
07:28 13.6 13.1 97 1014.5 0.0 NE 0.7 0.0 0.0
07:29 13.6 13.1 97 1014.3 1.6 NE 1.6 0.0 0.0
07:30 13.6 13.1 97 1014.3 0.7 N 1.6 0.0 0.0
07:31 13.6 13.1 97 1014.5 0.7 N 1.6 0.0 0.0
07:33 13.6 13.1 97 1014.4 0.7 NE 1.6 0.0 0.0
07:34 13.6 13.1 97 1014.4 0.7 N 1.6 0.0 0.0
07:35 13.6 13.1 97 1014.2 0.7 N 1.6 0.0 0.0
07:36 13.6 13.1 97 1014.5 0.7 N 1.6 0.0 0.0
07:37 13.6 13.1 97 1014.3 0.7 N 1.6 0.0 0.0
07:38 13.6 13.1 97 1014.4 0.7 N 1.6 0.0 0.0
07:39 13.5 13.0 97 1014.5 0.0 N 1.6 0.0 0.0
07:40 13.5 13.0 97 1014.4 0.0 N 0.7 0.0 0.0
07:41 13.5 13.0 97 1014.4 0.0 N 0.7 0.0 0.0
07:42 13.4 12.9 97 1014.6 0.0 N 0.7 0.0 0.0
07:43 13.4 12.9 97 1014.5 0.0 N 0.7 0.0 0.0
07:44 13.4 12.9 97 1014.6 0.0 N 0.7 0.0 0.0
07:45 13.4 12.9 97 1014.4 0.0 N 0.7 0.0 0.0
07:47 13.4 12.9 97 1014.4 0.0 NE 0.7 0.0 0.0
07:48 13.4 12.9 97 1014.6 0.7 NE 0.7 0.0 0.0
07:49 13.4 12.9 97 1014.4 0.7 N 0.7 0.0 0.0
07:50 13.4 12.9 97 1014.5 0.7 N 0.7 0.0 0.0
07:51 13.4 12.9 97 1014.6 1.6 N 1.6 0.0 0.0
07:52 13.4 12.9 97 1014.8 1.6 N 1.6 0.0 0.0
07:53 13.4 12.9 97 1014.7 1.6 N 1.6 0.0 0.0
07:54 13.4 12.9 97 1014.7 1.6 N 1.6 0.0 0.0
07:55 13.5 13.0 97 1014.7 1.6 N 1.6 0.0 0.0
07:56 13.5 13.2 98 1014.7 1.6 N 1.6 0.0 0.0
07:57 13.6 13.3 98 1014.8 1.6 NE 1.6 0.0 0.0
07:58 13.6 13.3 98 1014.7 1.6 NE 1.6 0.0 0.0
07:59 13.7 13.4 98 1014.7 1.6 NE 1.6 0.0 0.0
08:01 13.7 13.4 98 1014.7 1.6 N 1.6 0.0 0.0
08:02 13.8 13.5 98 1014.7 1.6 NE 1.6 0.0 0.0
08:03 13.8 13.5 98 1014.6 0.7 N 1.6 0.0 0.0
08:04 13.8 13.5 98 1014.6 0.7 N 1.6 0.0 0.0
08:05 13.8 13.5 98 1014.7 2.2 NW 2.2 0.0 0.0
08:06 13.9 13.6 98 1014.7 2.2 NW 2.2 0.0 0.0
08:07 13.9 13.6 98 1014.7 2.2 N 2.2 0.0 0.0
08:08 14.0 13.7 98 1014.8 2.2 NW 2.2 0.0 0.0
08:09 14.0 13.7 98 1014.9 1.6 N 2.2 0.0 0.0
08:10 14.0 13.7 98 1014.9 2.2 NE 2.2 0.0 0.0
08:11 14.0 13.7 98 1014.8 3.1 N 3.1 0.0 0.0
08:12 14.1 13.8 98 1015.0 3.1 N 3.1 0.0 0.0
08:13 14.1 14.0 99 1014.8 2.2 NW 3.1 0.0 0.0
08:15 14.2 14.1 99 1014.9 3.8 N 3.8 0.0 0.0
08:16 14.2 14.1 99 1014.9 3.8 N 3.8 0.0 0.0
08:17 14.2 14.1 99 1015.0 3.1 NW 3.8 0.0 0.0
08:18 14.2 14.1 99 1015.2 3.1 NW 3.8 0.0 0.0
08:19 14.3 14.2 99 1015.1 2.2 NW 3.8 0.0 0.0
08:20 14.3 14.2 99 1015.1 3.1 NW 3.8 0.0 0.0
08:21 14.3 14.2 99 1015.2 2.2 E 3.8 0.0 0.0
08:22 14.4 14.3 99 1015.0 2.2 N 3.8 0.0 0.0
08:23 14.4 14.3 99 1015.1 2.2 NE 3.8 0.0 0.0
08:24 14.4 14.3 99 1015.0 2.2 NE 3.8 0.0 0.0
08:25 14.5 14.4 99 1014.9 3.8 NNW 3.8 0.0 0.0
08:26 14.5 14.4 99 1015.1 2.2 N 3.8 0.0 0.0
08:27 14.5 14.4 99 1014.8 2.2 N 3.8 0.0 0.0
08:29 14.6 14.5 99 1015.2 3.1 NNE 4.5 0.0 0.0
08:30 14.6 14.5 99 1015.0 3.1 NNE 4.5 0.0 0.0
08:31 14.6 14.5 99 1015.0 2.2 SE 4.5 0.0 0.0
08:32 14.7 14.6 99 1015.0 3.1 NE 4.5 0.0 0.0
08:33 14.7 14.6 99 1015.1 3.1 NW 4.5 0.0 0.0
08:34 14.7 14.6 99 1015.0 3.1 N 4.5 0.0 0.0
08:35 14.7 14.6 99 1015.2 3.8 NW 4.5 0.0 0.0
08:36 14.7 14.6 99 1015.2 3.8 N 4.5 0.0 0.0
08:37 14.7 14.6 99 1015.2 3.1 NW 4.5 0.0 0.0
08:38 14.8 14.7 99 1015.0 3.1 NW 4.5 0.0 0.0
08:39 14.8 14.7 99 1015.3 2.2 SW 3.8 0.0 0.0
08:40 14.8 14.7 99 1015.2 1.6 N 3.8 0.0 0.0
08:41 14.8 14.7 99 1015.0 4.5 N 4.5 0.0 0.0
08:42 14.8 14.7 99 1015.1 3.8 N 4.5 0.0 0.0
08:43 14.8 14.7 99 1015.1 3.8 NW 4.5 0.0 0.0
08:45 14.9 14.8 99 1015.3 3.1 N 4.5 0.0 0.0
08:46 14.9 14.9 100 1015.2 6.0 N 6.0 0.0 0.0
08:47 14.9 14.9 100 1015.1 5.4 N 6.0 0.0 0.0
08:48 14.9 14.9 100 1015.2 6.0 N 6.0 0.0 0.0
08:49 14.9 14.9 100 1015.1 4.5 NE 6.0 0.0 0.0
08:50 14.9 14.9 100 1015.1 3.8 N 6.0 0.0 0.0
08:51 15.0 15.0 100 1014.8 4.5 NW 6.0 0.0 0.0
08:52 15.0 15.0 100 1015.2 4.5 NW 6.0 0.0 0.0
08:53 15.0 15.0 100 1015.1 2.2 NW 6.0 0.0 0.0
08:54 15.0 15.0 100 1015.1 4.5 NE 6.0 0.0 0.0
08:55 15.0 15.0 100 1015.2 2.2 N 6.0 0.0 0.0
08:56 15.1 15.1 100 1015.2 2.2 NE 6.0 0.0 0.0
08:57 15.1 15.1 100 1015.1 1.6 NE 6.0 0.0 0.0
08:59 15.1 15.1 100 1015.2 3.8 NW 5.4 0.0 0.0
09:00 15.1 15.1 100 1015.1 3.8 NW 5.4 0.0 0.0
09:01 15.1 15.1 100 1015.2 3.8 NW 5.4 0.0 0.0
09:02 15.1 15.1 100 1015.4 3.8 NW 5.4 0.0 0.0
09:03 15.2 15.2 100 1015.4 3.8 N 5.4 0.0 0.0
09:04 15.2 15.2 100 1015.5 3.8 N 5.4 0.0 0.0
09:05 15.2 15.2 100 1015.2 3.8 N 5.4 0.0 0.0
09:06 15.2 15.2 100 1015.1 3.1 N 5.4 0.0 0.0
09:07 15.2 15.2 100 1015.5 2.2 N 5.4 0.0 0.0
09:08 15.2 15.2 100 1015.2 1.6 NNW 5.4 0.0 0.0
09:09 15.2 15.2 100 1015.2 4.5 NW 4.5 0.0 0.0
09:10 15.2 15.2 100 1015.0 4.5 NW 4.5 0.0 0.0
09:11 15.2 15.2 100 1015.6 1.6 N 4.5 0.0 0.0
09:13 15.3 15.3 100 1015.3 4.5 NE 4.5 0.0 0.0
09:14 15.4 15.4 100 1015.4 3.8 N 4.5 0.0 0.0
09:15 15.4 15.4 100 1015.4 3.8 N 4.5 0.0 0.0
09:16 15.4 15.4 100 1015.4 3.8 N 4.5 0.0 0.0
09:17 15.4 15.4 100 1015.6 4.5 E 4.5 0.0 0.0
09:18 15.4 15.4 100 1015.3 3.8 NE 4.5 0.0 0.0
09:19 15.5 15.5 100 1015.3 2.2 N 4.5 0.0 0.0
09:20 15.5 15.5 100 1015.4 3.8 N 4.5 0.0 0.0
09:21 15.5 15.5 100 1015.5 3.8 NE 4.5 0.0 0.0
09:22 15.5 15.5 100 1015.4 2.2 NW 4.5 0.0 0.0
09:23 15.6 15.6 100 1015.5 3.1 N 4.5 0.0 0.0
09:24 15.6 15.6 100 1015.4 3.1 N 4.5 0.0 0.0
09:25 15.6 15.6 100 1015.5 2.2 N 4.5 0.0 0.0
09:26 15.6 15.6 100 1015.4 2.2 NW 4.5 0.0 0.0
09:28 15.7 15.7 100 1015.6 3.1 N 3.8 0.0 0.0
09:29 15.8 15.8 100 1015.5 2.2 N 3.8 0.0 0.0
09:30 15.8 15.8 100 1015.5 2.2 N 3.8 0.0 0.0
09:31 15.8 15.8 100 1015.5 2.2 NW 3.8 0.0 0.0
09:32 15.8 15.8 100 1015.7 4.5 NE 4.5 0.0 0.0
09:33 15.9 15.9 100 1015.6 3.8 NW 4.5 0.0 0.0
09:34 15.9 15.9 100 1015.6 3.1 NE 4.5 0.0 0.0
09:35 15.9 15.9 100 1015.6 2.2 NW 4.5 0.0 0.0
09:36 15.9 15.9 100 1015.6 2.2 W 4.5 0.0 0.0
09:37 15.9 15.9 100 1015.5 2.2 NW 4.5 0.0 0.0
09:38 15.9 15.9 100 1015.5 3.1 NW 4.5 0.0 0.0
09:39 15.9 15.9 100 1015.6 2.2 NW 4.5 0.0 0.0
09:40 15.9 15.9 100 1015.7 1.6 NW 4.5 0.0 0.0
09:41 16.0 16.0 100 1015.7 1.6 N 4.5 0.0 0.0
09:43 16.0 16.0 100 1015.6 1.6 SW 3.1 0.0 0.0
09:44 16.0 16.0 100 1015.5 1.6 N 3.1 0.0 0.0
09:45 16.0 16.0 100 1015.7 2.2 WNW 3.1 0.0 0.0
09:46 16.0 16.0 100 1015.7 2.2 WNW 3.1 0.0 0.0
09:47 16.0 16.0 100 1015.6 4.5 NNW 4.5 0.0 0.0
09:48 16.0 16.0 100 1015.6 2.2 NW 4.5 0.0 0.0
09:49 16.0 16.0 100 1015.7 2.2 NE 4.5 0.0 0.0
09:50 16.0 16.0 100 1015.7 2.2 SW 4.5 0.0 0.0
09:51 16.1 16.1 100 1015.8 1.6 NW 4.5 0.0 0.0
09:52 16.1 16.1 100 1015.8 3.1 NW 4.5 0.0 0.0
09:53 16.1 16.1 100 1015.8 3.8 NW 4.5 0.0 0.0
09:54 16.1 16.1 100 1015.8 3.8 N 4.5 0.0 0.0
09:55 16.1 16.1 100 1015.7 3.8 NW 4.5 0.0 0.0
09:56 16.2 16.2 100 1015.7 3.1 WNW 4.5 0.0 0.0
09:58 16.2 16.2 100 1015.8 6.0 NW 6.0 0.0 0.0
09:59 16.2 16.2 100 1015.8 5.4 N 6.0 0.0 0.0
10:00 16.2 16.2 100 1015.7 5.4 N 6.0 0.0 0.0
10:01 16.2 16.2 100 1015.8 5.4 N 6.0 0.0 0.0
10:02 16.2 16.2 100 1015.9 5.4 N 6.0 0.0 0.0
10:03 16.2 16.2 100 1015.6 5.4 N 6.0 0.0 0.0
10:04 16.2 16.2 100 1015.8 5.4 N 6.0 0.0 0.0
10:05 16.2 16.2 100 1015.9 5.4 N 6.0 0.0 0.0
10:06 16.3 16.3 100 1015.8 3.8 W 6.0 0.0 0.0
10:07 16.3 16.3 100 1015.5 2.2 NW 6.0 0.0 0.0
10:08 16.3 16.3 100 1015.8 1.6 N 6.0 0.0 0.0
10:09 16.4 16.4 100 1015.8 3.1 W 5.4 0.0 0.0
10:10 16.4 16.4 100 1015.7 3.1 N 5.4 0.0 0.0
10:11 16.4 16.4 100 1015.8 1.6 N 5.4 0.0 0.0
10:13 16.5 16.5 100 1015.8 2.2 NW 5.4 0.0 0.0
10:14 16.5 16.5 100 1015.9 0.7 W 5.4 0.0 0.0
10:15 16.6 16.6 100 1015.8 2.2 SW 5.4 0.0 0.0
10:16 16.6 16.6 100 1015.8 1.6 W 3.8 0.0 0.0
10:17 16.6 16.6 100 1015.9 4.5 NE 4.5 0.0 0.0
10:18 16.6 16.6 100 1015.7 4.5 WNW 4.5 0.0 0.0
10:19 16.7 16.6 99 1016.0 3.8 N 4.5 0.0 0.0
10:20 16.7 16.6 99 1015.8 3.8 N 4.5 0.0 0.0
10:21 16.7 16.6 99 1015.6 3.1 N 4.5 0.0 0.0
10:22 16.7 16.6 99 1015.8 3.8 N 4.5 0.0 0.0
10:23 16.8 16.7 99 1015.7 2.2 NW 4.5 0.0 0.0
10:24 16.8 16.7 99 1015.7 2.2 NE 4.5 0.0 0.0
10:25 16.9 16.8 99 1015.7 3.1 NNE 4.5 0.0 0.0
10:27 16.9 16.8 99 1016.0 2.2 E 4.5 0.0 0.0
10:28 16.9 16.8 99 1016.0 2.2 SW 3.8 0.0 0.0
10:29 17.0 16.9 99 1015.8 3.1 NE 3.8 0.0 0.0
10:30 17.0 16.7 98 1015.7 3.1 NW 3.8 0.0 0.0
10:31 17.0 16.7 98 1015.8 2.2 W 3.8 0.0 0.0
10:32 17.1 16.8 98 1016.0 3.1 W 3.8 0.0 0.0
10:33 17.1 16.8 98 1015.8 1.6 W 3.1 0.0 0.0
10:34 17.1 16.8 98 1015.9 3.8 NW 3.8 0.0 0.0
10:35 17.2 16.7 97 1015.8 2.2 NW 3.8 0.0 0.0
10:36 17.2 16.7 97 1015.8 1.6 W 3.8 0.0 0.0
10:37 17.2 16.7 97 1015.8 2.2 W 3.8 0.0 0.0
10:38 17.2 16.7 97 1015.8 2.2 W 3.8 0.0 0.0
10:39 17.2 16.6 96 1015.9 3.1 N 3.8 0.0 0.0
10:40 17.3 16.7 96 1016.0 1.6 N 3.8 0.0 0.0
10:42 17.3 16.7 96 1015.9 3.1 W 3.8 0.0 0.0
10:43 17.3 16.7 96 1015.8 2.2 NE 3.8 0.0 0.0
10:44 17.4 16.8 96 1015.8 2.2 NE 3.8 0.0 0.0
10:45 17.4 16.6 95 1015.8 2.2 NE 3.1 0.0 0.0
10:46 17.4 16.6 95 1016.0 2.2 NW 3.1 0.0 0.0
10:47 17.5 16.0 91 1015.9 2.2 NE 3.8 0.0 0.0
10:48 17.5 16.0 91 1016.2 3.1 E 3.8 0.0 0.0
10:49 17.6 16.0 90 1015.8 4.5 N 4.5 0.0 0.0
10:50 17.6 16.0 90 1016.0 4.5 N 4.5 0.0 0.0
10:51 17.8 16.0 89 1015.9 3.8 W 4.5 0.0 0.0
10:52 17.8 15.8 88 1016.1 2.2 W 4.5 0.0 0.0
10:53 18.0 15.8 87 1016.1 3.8 W 4.5 0.0 0.0
10:54 18.1 15.7 86 1016.0 2.2 N 4.5 0.0 0.0
10:55 18.2 15.8 86 1015.8 2.2 NE 4.5 0.0 0.0
10:57 18.5 15.9 85 1015.9 3.8 NE 4.5 0.0 0.0
10:58 18.6 16.0 85 1015.9 3.8 NE 4.5 0.0 0.0
10:59 18.7 16.0 84 1015.9 3.1 NE 4.5 0.0 0.0
11:00 18.7 16.0 84 1015.9 3.1 NE 3.8 0.0 0.0
11:01 18.7 16.0 84 1015.6 3.1 NE 3.8 0.0 0.0
11:02 18.7 16.0 84 1015.7 3.1 NE 3.8 0.0 0.0
11:03 19.0 15.9 82 1015.9 1.6 NW 4.5 0.0 0.0
11:04 19.0 15.7 81 1015.7 3.1 NW 4.5 0.0 0.0
11:05 19.1 15.8 81 1015.7 3.1 N 4.5 0.0 0.0
11:06 19.1 15.8 81 1015.9 3.8 N 4.5 0.0 0.0
11:07 19.2 15.9 81 1015.9 3.8 N 4.5 0.0 0.0
11:08 19.2 15.7 80 1015.9 3.8 NNW 4.5 0.0 0.0
11:09 19.3 15.8 80 1015.8 5.4 NE 5.4 0.0 0.0
11:10 19.2 15.5 79 1015.8 4.5 E 5.4 0.0 0.0
11:11 19.2 15.5 79 1016.0 6.0 N 6.0 0.0 0.0
11:13 19.2 15.5 79 1015.7 3.8 SE 6.0 0.0 0.0
11:14 19.2 15.5 79 1015.9 4.5 W 6.0 0.0 0.0
11:15 19.3 15.6 79 1015.9 3.1 E 6.0 0.0 0.0
11:16 19.3 15.6 79 1015.9 2.2 W 6.0 0.0 0.0
11:17 19.4 15.7 79 1015.9 3.8 W 6.0 0.0 0.0
11:18 19.4 15.7 79 1015.8 1.6 N 6.0 0.0 0.0
11:20 19.6 15.9 79 1015.8 3.1 W 6.0 0.0 0.0
11:21 19.8 16.1 79 1016.0 4.5 SW 6.0 0.0 0.0
11:22 19.8 16.1 79 1016.0 4.5 SW 6.0 0.0 0.0
11:23 19.9 16.2 79 1015.7 6.0 NW 6.0 0.0 0.0
11:24 20.0 16.3 79 1016.0 3.8 NW 6.0 0.0 0.0
11:25 20.0 16.1 78 1015.8 5.4 NW 6.0 0.0 0.0
11:26 19.9 16.0 78 1015.8 4.5 NW 6.0 0.0 0.0
11:27 19.8 15.7 77 1015.9 2.2 W 6.0 0.0 0.0
11:28 19.8 15.5 76 1015.9 3.1 N 6.0 0.0 0.0
11:29 19.7 15.4 76 1015.6 4.5 NW 6.0 0.0 0.0
11:30 19.7 15.4 76 1015.8 2.2 NW 6.0 0.0 0.0
11:31 19.8 15.7 77 1015.7 3.8 W 6.0 0.0 0.0
11:32 19.8 15.7 77 1015.9 4.5 W 6.0 0.0 0.0
11:33 20.0 16.3 79 1015.8 3.1 N 6.0 0.0 0.0
11:35 20.1 16.2 78 1016.0 5.4 NE 5.4 0.0 0.0
11:36 20.2 16.3 78 1016.0 6.0 W 6.0 0.0 0.0
11:37 20.2 16.1 77 1015.9 6.0 SW 6.0 0.0 0.0
11:38 20.2 16.1 77 1015.9 6.9 N 6.9 0.0 0.0
11:39 20.2 15.8 76 1015.9 6.0 NW 6.9 0.0 0.0
11:40 20.1 15.8 76 1015.9 4.5 W 6.9 0.0 0.0
11:41 20.1 15.8 76 1016.0 4.5 SW 6.9 0.0 0.0
11:42 20.0 15.7 76 1015.7 1.6 W 6.9 0.0 0.0
11:43 20.0 15.9 77 1015.9 4.5 N 6.9 0.0 0.0
11:44 20.1 16.0 77 1015.9 5.4 W 6.9 0.0 0.0
11:45 20.1 16.0 77 1015.9 2.2 NE 6.9 0.0 0.0
11:46 20.2 16.3 78 1015.8 8.3 W 8.3 0.0 0.0
11:47 20.2 16.1 77 1015.7 6.9 W 8.3 0.0 0.0
11:48 20.2 15.8 76 1016.0 6.9 SW 8.3 0.0 0.0
11:49 20.3 15.9 76 1015.8 3.8 SW 8.3 0.0 0.0
11:50 20.3 15.9 76 1016.0 5.4 N 8.3 0.0 0.0
11:52 20.4 16.0 76 1015.9 3.1 SW 8.3 0.0 0.0
11:53 20.5 15.9 75 1015.9 3.8 NW 8.3 0.0 0.0
11:54 20.5 15.9 75 1015.9 3.8 NW 8.3 0.0 0.0
11:55 20.6 16.0 75 1015.7 7.6 N 8.3 0.0 0.0
11:56 20.6 15.8 74 1015.7 6.0 WSW 8.3 0.0 0.0
11:57 20.7 15.9 74 1015.9 5.4 SW 7.6 0.0 0.0
11:58 20.7 15.9 74 1015.7 5.4 NW 7.6 0.0 0.0
11:59 20.7 15.7 73 1015.6 6.9 W 7.6 0.0 0.0
12:00 20.7 15.7 73 1016.0 6.9 W 7.6 0.0 0.0
12:01 20.7 15.7 73 1015.7 6.9 W 7.6 0.0 0.0
12:02 20.7 15.7 73 1015.8 6.9 W 7.6 0.0 0.0
12:03 20.7 15.7 73 1015.6 6.9 W 7.6 0.0 0.0
12:04 20.7 15.7 73 1015.8 6.9 W 7.6 0.0 0.0
12:05 20.7 15.5 72 1015.9 5.4 W 7.6 0.0 0.0
12:07 20.8 15.8 73 1016.1 5.4 W 6.9 0.0 0.0
12:08 20.9 15.7 72 1015.7 6.0 W 6.9 0.0 0.0
12:09 20.9 15.7 72 1015.9 4.5 W 6.9 0.0 0.0
12:10 20.9 15.5 71 1015.9 4.5 W 6.9 0.0 0.0
12:11 21.0 15.8 72 1015.8 6.0 W 6.9 0.0 0.0
12:12 21.0 15.6 71 1015.8 6.0 NW 6.9 0.0 0.0
12:13 21.1 15.7 71 1015.7 6.0 NW 6.9 0.0 0.0
12:14 21.1 15.7 71 1015.9 5.4 NW 6.9 0.0 0.0
12:15 21.1 15.7 71 1015.9 5.4 W 6.9 0.0 0.0
12:16 21.1 15.4 70 1015.9 5.4 W 6.0 0.0 0.0
12:17 21.1 15.4 70 1016.0 6.0 NW 6.0 0.0 0.0
12:18 21.1 15.4 70 1015.8 6.0 W 6.0 0.0 0.0
12:19 21.1 15.4 70 1016.0 6.0 W 6.0 0.0 0.0
12:20 21.1 15.4 70 1015.9 6.0 NW 6.0 0.0 0.0
12:22 21.1 15.4 70 1015.8 5.4 NW 7.6 0.0 0.0
12:23 21.1 15.4 70 1016.0 4.5 W 7.6 0.0 0.0
12:24 21.1 15.4 70 1015.9 4.5 W 7.6 0.0 0.0
12:25 21.2 15.5 70 1016.0 7.6 W 7.6 0.0 0.0
12:26 21.2 15.5 70 1016.0 7.6 NW 7.6 0.0 0.0
12:27 21.2 15.5 70 1015.7 4.5 N 7.6 0.0 0.0
12:28 21.2 15.5 70 1015.9 4.5 NW 7.6 0.0 0.0
12:29 21.3 15.4 69 1015.9 7.6 NW 8.3 0.0 0.0
12:30 21.3 15.4 69 1015.8 4.5 W 8.3 0.0 0.0
12:32 21.4 15.7 70 1016.0 3.8 N 8.3 0.0 0.0
12:33 21.5 15.8 70 1015.9 3.1 SW 8.3 0.0 0.0
12:34 21.5 16.0 71 1016.1 3.8 NW 8.3 0.0 0.0
12:35 21.6 15.9 70 1016.0 5.4 NW 8.3 0.0 0.0
12:36 21.6 15.9 70 1016.0 5.4 NW 8.3 0.0 0.0
12:37 21.6 15.7 69 1015.9 5.4 NW 8.3 0.0 0.0
12:38 21.6 15.7 69 1015.8 5.4 NW 8.3 0.0 0.0
12:39 21.6 15.9 70 1015.7 7.6 N 7.6 0.0 0.0
12:40 21.7 16.0 70 1015.8 3.8 N 7.6 0.0 0.0
12:41 21.8 16.3 71 1016.0 6.0 SW 7.6 0.0 0.0
12:42 21.9 16.2 70 1016.0 5.4 W 7.6 0.0 0.0
12:43 21.9 16.2 70 1016.0 6.0 NW 7.6 0.0 0.0
12:45 21.9 16.0 69 1015.9 5.4 SW 8.3 0.0 0.0
12:46 22.0 16.3 70 1016.0 2.2 W 8.3 0.0 0.0
12:47 22.0 16.1 69 1016.0 3.1 W 8.3 0.0 0.0
12:48 22.0 15.8 68 1016.0 2.2 W 8.3 0.0 0.0
12:49 22.0 16.1 69 1016.0 4.5 W 8.3 0.0 0.0
12:50 22.0 16.1 69 1016.0 4.5 NW 8.3 0.0 0.0
12:51 22.0 15.8 68 1015.8 4.5 W 8.3 0.0 0.0
12:52 22.0 15.8 68 1015.8 3.1 SE 8.3 0.0 0.0
12:53 22.0 16.1 69 1015.8 5.4 N 8.3 0.0 0.0
12:54 22.0 16.1 69 1015.9 5.4 NW 8.3 0.0 0.0
12:55 21.9 15.7 68 1015.8 6.0 N 6.9 0.0 0.0
12:56 21.9 15.7 68 1015.8 2.2 W 6.9 0.0 0.0
12:57 21.9 16.0 69 1016.0 4.5 W 6.9 0.0 0.0
12:58 21.9 16.0 69 1015.9 5.4 N 6.9 0.0 0.0
12:59 21.9 16.0 69 1015.9 4.5 NW 6.9 0.0 0.0
13:00 21.9 16.0 69 1015.9 4.5 NW 6.9 0.0 0.0
13:01 21.9 16.0 69 1016.0 4.5 NW 6.9 0.0 0.0
13:02 21.9 16.0 69 1016.0 4.5 NW 6.9 0.0 0.0
13:04 21.9 16.0 69 1015.8 4.5 NW 6.9 0.0 0.0
13:05 21.7 15.3 67 1016.0 6.9 NW 6.9 0.0 0.0
13:06 21.7 15.3 67 1016.0 6.9 NW 6.9 0.0 0.0
13:07 21.7 15.3 67 1015.9 5.4 NW 6.9 0.0 0.0
13:08 21.7 15.3 67 1015.8 5.4 NW 6.9 0.0 0.0
13:09 21.7 15.1 66 1015.9 3.8 W 6.9 0.0 0.0
13:10 21.7 15.3 67 1015.9 3.1 NW 6.9 0.0 0.0
13:11 21.9 16.0 69 1015.9 6.0 NW 6.9 0.0 0.0
13:12 22.0 16.1 69 1015.7 6.0 NW 6.9 0.0 0.0
13:13 22.0 15.6 67 1015.9 6.9 NW 6.9 0.0 0.0
13:14 22.0 15.6 67 1015.7 5.4 N 6.9 0.0 0.0
13:16 22.0 15.4 66 1015.9 6.0 W 6.9 0.0 0.0
13:17 21.9 15.3 66 1015.8 3.1 N 6.9 0.0 0.0
13:18 21.9 15.3 66 1015.8 3.1 N 6.9 0.0 0.0
13:19 21.9 16.0 69 1015.7 6.0 SW 6.9 0.0 0.0
13:20 22.0 16.1 69 1016.0 5.4 NW 6.9 0.0 0.0
13:21 22.0 16.1 69 1015.8 6.9 NW 6.9 0.0 0.0
13:22 22.0 16.1 69 1015.7 6.9 N 6.9 0.0 0.0
13:23 22.1 16.2 69 1015.8 7.6 NW 7.6 0.0 0.0
13:24 22.1 16.2 69 1015.8 6.9 NW 7.6 0.0 0.0
13:25 22.1 16.2 69 1015.9 6.9 NW 7.6 0.0 0.0
13:26 22.1 16.2 69 1015.9 7.6 NW 7.6 0.0 0.0
13:27 22.1 16.2 69 1015.8 6.0 W 7.6 0.0 0.0
13:28 22.1 15.9 68 1015.8 8.3 NW 8.3 0.0 0.0
13:29 22.1 16.2 69 1015.7 6.9 N 8.3 0.0 0.0
13:30 22.1 16.2 69 1015.9 5.4 SW 8.3 0.0 0.0
13:32 22.1 16.2 69 1015.9 6.9 SW 8.3 0.0 0.0
13:33 22.0 16.1 69 1015.9 7.6 S 8.3 0.0 0.0
13:34 22.0 16.1 69 1015.9 7.6 S 8.3 0.0 0.0
13:35 21.9 15.7 68 1016.0 6.0 W 8.3 0.0 0.0
13:36 21.9 16.0 69 1016.0 6.9 NE 8.3 0.0 0.0
13:37 21.9 16.0 69 1015.9 6.9 NW 8.3 0.0 0.0
13:38 21.9 16.0 69 1015.8 9.2 NW 9.2 0.0 0.0
13:39 21.9 16.0 69 1015.9 11.4 N 11.4 0.0 0.0
13:40 21.8 15.6 68 1015.7 6.9 NNW 11.4 0.0 0.0
13:41 21.8 15.9 69 1016.0 5.4 WNW 11.4 0.0 0.0
13:42 21.8 15.9 69 1016.0 6.9 N 11.4 0.0 0.0
13:43 21.8 15.9 69 1015.9 6.0 NW 11.4 0.0 0.0
13:44 21.8 16.1 70 1015.9 6.0 N 11.4 0.0 0.0
13:45 21.9 16.2 70 1015.8 5.4 W 11.4 0.0 0.0
13:47 22.0 16.1 69 1015.8 7.6 W 11.4 0.0 0.0
13:48 22.0 16.1 69 1016.0 7.6 W 11.4 0.0 0.0
13:49 22.0 16.1 69 1015.7 7.6 W 11.4 0.0 0.0
13:50 21.9 16.0 69 1015.6 9.2 W 9.2 0.0 0.0
13:51 21.9 16.0 69 1016.0 7.6 W 9.2 0.0 0.0
13:52 21.8 15.9 69 1015.9 6.0 W 9.2 0.0 0.0
13:53 21.8 15.9 69 1015.9 6.0 NE 9.2 0.0 0.0
13:54 21.8 15.9 69 1015.9 9.8 SW 9.8 0.0 0.0
13:55 21.7 15.8 69 1015.9 6.0 N 9.8 0.0 0.0
13:56 21.7 15.8 69 1015.9 9.8 W 9.8 0.0 0.0
13:57 21.6 15.7 69 1015.9 9.8 NW 9.8 0.0 0.0
13:58 21.6 15.7 69 1015.7 9.2 NW 9.8 0.0 0.0
13:59 21.6 15.9 70 1016.1 9.8 NW 9.8 0.0 0.0
14:00 21.6 15.9 70 1015.8 9.8 NW 9.8 0.0 0.0
14:01 21.6 15.9 70 1015.7 9.8 NW 9.8 0.0 0.0
14:02 21.6 15.9 70 1015.9 7.6 W 9.8 0.0 0.0
14:03 21.6 15.9 70 1016.0 6.0 W 9.8 0.0 0.0
14:04 21.7 16.2 71 1015.8 5.4 NW 9.8 0.0 0.0
14:06 21.7 16.0 70 1016.0 8.3 N 9.8 0.0 0.0
14:07 21.7 16.0 70 1015.8 3.8 NW 9.8 0.0 0.0
14:08 21.8 16.3 71 1015.9 3.8 NW 9.8 0.0 0.0
14:09 21.9 16.4 71 1015.9 7.6 N 9.8 0.0 0.0
14:10 21.9 16.2 70 1016.1 5.4 E 9.8 0.0 0.0
14:11 21.9 16.2 70 1016.1 6.0 NW 9.8 0.0 0.0
14:12 21.9 16.2 70 1016.0 6.0 NW 8.3 0.0 0.0
14:13 21.9 16.2 70 1016.0 4.5 NW 8.3 0.0 0.0
14:14 21.9 16.2 70 1016.0 4.5 NW 8.3 0.0 0.0
14:15 22.0 16.3 70 1015.9 3.8 NW 8.3 0.0 0.0
14:16 22.0 16.3 70 1015.9 6.9 NW 8.3 0.0 0.0
14:17 22.0 16.3 70 1016.0 6.0 NW 7.6 0.0 0.0
14:18 22.0 16.3 70 1016.1 9.2 NW 9.2 0.0 0.0
14:19 22.0 16.3 70 1015.9 7.6 W 9.2 0.0 0.0
14:20 22.0 16.3 70 1016.0 7.6 NW 9.2 0.0 0.0
14:21 22.0 16.3 70 1015.8 6.0 S 9.2 0.0 0.0
14:22 22.0 16.3 70 1015.9 5.4 NW 9.2 0.0 0.0
14:24 22.0 16.3 70 1016.1 6.0 NW 9.2 0.0 0.0
14:25 22.1 16.4 70 1016.0 6.0 NW 9.2 0.0 0.0
14:26 22.1 16.4 70 1015.9 6.0 NW 9.2 0.0 0.0
14:27 22.1 16.4 70 1016.1 6.9 W 9.2 0.0 0.0
14:28 22.1 16.2 69 1015.8 4.5 NW 7.6 0.0 0.0
14:29 22.1 16.4 70 1015.8 3.8 NW 7.6 0.0 0.0
14:30 22.2 16.5 70 1016.1 8.3 W 8.3 0.0 0.0
14:31 22.2 16.5 70 1016.1 5.4 NW 8.3 0.0 0.0
14:32 22.3 16.6 70 1016.1 7.6 NW 8.3 0.0 0.0
14:33 22.4 16.5 69 1016.0 7.6 NW 8.3 0.0 0.0
14:34 22.3 16.4 69 1016.1 7.6 NW 8.3 0.0 0.0
14:35 22.3 16.4 69 1016.2 6.9 SW 8.3 0.0 0.0
14:36 22.3 16.4 69 1016.2 6.0 NW 8.3 0.0 0.0
14:37 22.2 16.3 69 1015.8 8.3 N 8.3 0.0 0.0
14:38 22.1 15.9 68 1015.9 8.3 N 8.3 0.0 0.0
14:39 22.0 16.1 69 1015.9 5.4 NW 8.3 0.0 0.0
14:40 22.0 16.1 69 1015.9 6.0 SW 8.3 0.0 0.0
14:41 22.0 16.1 69 1015.9 7.6 NW 8.3 0.0 0.0
14:42 21.9 15.7 68 1015.8 9.2 NW 9.2 0.0 0.0
14:44 21.7 15.8 69 1015.8 6.0 N 9.2 0.0 0.0
14:45 21.7 15.8 69 1016.0 5.4 N 9.2 0.0 0.0
14:46 21.7 15.8 69 1016.0 5.4 N 9.2 0.0 0.0
14:47 21.8 15.9 69 1016.0 7.6 E 9.2 0.0 0.0
14:48 21.8 15.9 69 1015.9 6.0 W 9.2 0.0 0.0
14:49 21.8 15.9 69 1015.9 3.8 W 9.2 0.0 0.0
14:50 21.8 15.9 69 1015.8 6.0 W 9.2 0.0 0.0
14:51 21.9 16.0 69 1015.8 4.5 N 9.2 0.0 0.0
14:52 21.9 16.0 69 1015.9 6.0 NW 9.2 0.0 0.0
14:53 21.9 16.0 69 1016.1 6.0 NW 9.2 0.0 0.0
14:54 22.0 16.1 69 1015.9 6.9 NW 7.6 0.0 0.0
14:55 22.0 15.8 68 1016.0 5.4 NW 7.6 0.0 0.0
14:56 22.0 16.1 69 1016.0 6.9 W 7.6 0.0 0.0
14:57 21.9 15.5 67 1015.9 4.5 W 7.6 0.0 0.0
14:58 21.9 15.5 67 1015.9 5.4 W 6.9 0.0 0.0
14:59 21.9 16.0 69 1015.8 3.8 NE 6.9 0.0 0.0
15:00 21.9 16.0 69 1016.0 3.8 NE 6.9 0.0 0.0
15:01 21.9 16.0 69 1015.9 3.8 NE 6.9 0.0 0.0
15:03 21.9 16.0 69 1016.0 3.8 NE 6.9 0.0 0.0
15:04 21.9 16.0 69 1016.0 3.8 NE 6.9 0.0 0.0
15:05 21.9 16.0 69 1016.0 3.8 NE 6.9 0.0 0.0
15:06 22.2 16.3 69 1016.0 7.6 NW 7.6 0.0 0.0
15:07 22.2 16.3 69 1016.1 6.9 NW 7.6 0.0 0.0
15:08 22.3 16.4 69 1016.1 6.0 NW 7.6 0.0 0.0
15:09 22.2 16.0 68 1016.0 3.8 E 7.6 0.0 0.0
15:10 22.3 16.4 69 1016.0 3.8 SW 7.6 0.0 0.0
15:11 22.3 16.4 69 1015.9 7.6 W 7.6 0.0 0.0
15:12 22.2 15.8 67 1016.0 6.9 N 7.6 0.0 0.0
15:13 22.2 16.0 68 1015.8 4.5 NW 7.6 0.0 0.0
15:14 22.1 15.9 68 1016.0 5.4 SW 7.6 0.0 0.0
15:16 22.3 16.4 69 1016.0 4.5 NW 7.6 0.0 0.0
15:17 22.3 16.4 69 1016.1 5.4 W 7.6 0.0 0.0
15:18 22.4 16.2 68 1015.8 5.4 NW 7.6 0.0 0.0
15:19 22.4 16.2 68 1015.9 6.0 SW 7.6 0.0 0.0
15:20 22.4 16.5 69 1015.7 3.8 NW 7.6 0.0 0.0
15:21 22.4 16.5 69 1015.9 6.0 NW 7.6 0.0 0.0
15:22 22.4 16.2 68 1015.9 6.0 N 6.9 0.0 0.0
15:23 22.5 15.1 63 1016.0 6.9 N 6.9 0.0 0.0
15:24 22.5 15.1 63 1015.8 6.9 N 6.9 0.0 0.0
15:25 22.4 16.0 67 1015.9 5.4 W 6.9 0.0 0.0
15:26 22.4 16.0 67 1016.2 7.6 W 7.6 0.0 0.0
15:27 22.3 15.7 66 1016.2 7.6 W 8.3 0.0 0.0
15:28 22.3 15.9 67 1016.0 7.6 WNW 8.3 0.0 0.0
15:29 22.3 15.9 67 1016.0 6.9 NW 9.2 0.0 0.0
15:30 22.2 16.0 68 1016.0 6.0 NW 9.2 0.0 0.0
15:31 22.2 16.0 68 1016.0 8.3 W 9.2 0.0 0.0
15:32 22.2 16.0 68 1016.0 9.2 W 9.2 0.0 0.0
15:33 22.3 16.1 68 1015.9 6.0 NW 9.2 0.0 0.0
15:35 22.2 15.8 67 1016.0 8.3 NW 9.2 0.0 0.0
15:36 22.1 15.7 67 1016.0 7.6 WSW 9.2 0.0 0.0
15:37 22.0 15.6 67 1015.9 7.6 W 9.2 0.0 0.0
15:38 22.0 15.6 67 1015.9 7.6 W 9.2 0.0 0.0
15:39 21.9 15.3 66 1016.1 8.3 W 9.2 0.0 0.0
15:40 21.9 15.3 66 1016.0 6.9 N 9.2 0.0 0.0
15:41 21.9 15.3 66 1015.8 6.0 SW 9.2 0.0 0.0
15:42 21.8 15.4 67 1015.9 6.9 NW 9.2 0.0 0.0
15:43 21.8 15.9 69 1015.9 3.1 W 9.2 0.0 0.0
15:44 21.9 16.0 69 1015.8 5.4 W 9.2 0.0 0.0
15:45 22.0 16.1 69 1015.9 7.6 W 9.2 0.0 0.0
15:46 22.0 16.1 69 1016.0 5.4 S 9.2 0.0 0.0
15:47 22.0 15.8 68 1015.9 6.0 W 9.2 0.0 0.0
15:48 21.9 15.5 67 1015.9 9.2 SW 9.2 0.0 0.0
15:49 21.8 15.6 68 1016.1 6.0 SW 9.2 0.0 0.0
15:50 21.8 15.4 67 1015.8 8.3 NW 9.2 0.0 0.0
15:51 21.8 15.4 67 1016.1 8.3 W 9.2 0.0 0.0
15:52 21.8 15.6 68 1016.0 8.3 W 9.2 0.0 0.0
15:54 21.9 15.7 68 1016.0 6.9 SW 9.2 0.0 0.0
15:55 21.9 15.7 68 1015.8 7.6 NW 9.2 0.0 0.0
15:56 21.8 15.6 68 1015.8 6.9 W 9.2 0.0 0.0
15:57 21.9 16.0 69 1016.1 7.6 W 9.2 0.0 0.0
15:58 21.9 16.0 69 1015.9 6.9 W 9.2 0.0 0.0
15:59 21.9 15.7 68 1016.0 7.6 NW 9.2 0.0 0.0
16:00 21.9 15.7 68 1016.0 7.6 NW 8.3 0.0 0.0
16:01 21.9 15.7 68 1016.2 7.6 NW 8.3 0.0 0.0
16:02 21.9 15.7 68 1016.0 7.6 NW 8.3 0.0 0.0
16:03 22.0 15.8 68 1015.9 6.9 SW 8.3 0.0 0.0
16:04 22.0 15.6 67 1016.0 9.2 SW 9.2 0.0 0.0
16:05 22.0 15.6 67 1016.2 6.9 W 9.2 0.0 0.0
16:06 22.0 15.6 67 1015.8 6.9 W 9.2 0.0 0.0
16:07 22.1 15.7 67 1016.1 9.2 NW 9.2 0.0 0.0
16:08 22.1 15.5 66 1016.0 9.2 NW 9.2 0.0 0.0
16:09 22.1 15.5 66 1016.2 9.2 NW 9.2 0.0 0.0
16:10 22.0 15.4 66 1016.2 7.6 W 9.2 0.0 0.0
16:11 22.0 15.1 65 1016.2 6.9 NW 9.2 0.0 0.0
16:13 21.9 15.5 67 1016.2 6.9 NW 9.2 0.0 0.0
16:14 21.9 15.3 66 1016.1 6.0 NE 9.2 0.0 0.0
16:15 21.9 15.0 65 1016.1 6.9 NW 9.2 0.0 0.0
16:16 21.9 15.0 65 1016.1 6.9 N 9.2 0.0 0.0
16:17 21.9 15.0 65 1016.1 6.0 N 9.2 0.0 0.0
16:18 21.9 15.3 66 1016.1 5.4 NW 9.2 0.0 0.0
16:19 22.0 15.4 66 1016.1 5.4 W 9.2 0.0 0.0
16:20 22.0 15.1 65 1016.1 8.3 SW 9.2 0.0 0.0
16:21 22.0 15.1 65 1016.2 6.9 NW 9.2 0.0 0.0
16:22 22.0 15.4 66 1016.2 7.6 W 9.2 0.0 0.0
16:23 22.0 15.4 66 1016.1 6.0 NW 9.2 0.0 0.0
16:24 22.0 15.4 66 1016.1 6.9 W 9.2 0.0 0.0
16:25 22.0 15.4 66 1016.1 6.0 NW 9.2 0.0 0.0
16:26 22.0 15.4 66 1016.3 6.9 NW 9.2 0.0 0.0
16:27 21.9 15.3 66 1016.2 5.4 W 9.2 0.0 0.0
16:28 21.9 15.3 66 1016.2 5.4 W 9.2 0.0 0.0
16:29 21.9 15.3 66 1016.3 7.6 NW 9.2 0.0 0.0
16:30 21.9 15.5 67 1016.1 6.0 W 9.2 0.0 0.0
16:32 21.9 15.3 66 1016.1 5.4 NW 9.2 0.0 0.0
16:33 21.8 15.2 66 1016.2 8.3 SE 9.2 0.0 0.0
16:34 21.8 15.2 66 1016.4 4.5 W 9.2 0.0 0.0
16:35 21.8 15.4 67 1016.4 5.4 SW 9.2 0.0 0.0
16:36 21.8 15.4 67 1016.3 6.0 NW 9.2 0.0 0.0
16:37 21.8 15.6 68 1016.4 6.0 W 9.2 0.0 0.0
16:38 21.8 15.6 68 1016.3 8.3 SW 9.2 0.0 0.0
16:39 21.8 15.6 68 1016.0 5.4 NW 9.2 0.0 0.0
16:40 21.8 15.6 68 1016.2 4.5 NW 8.3 0.0 0.0
16:41 21.8 15.6 68 1016.2 3.8 NE 8.3 0.0 0.0
16:42 21.8 15.6 68 1016.2 4.5 S 8.3 0.0 0.0
16:43 21.8 15.6 68 1016.4 6.0 NW 8.3 0.0 0.0
16:44 21.8 15.6 68 1016.4 6.9 NE 8.3 0.0 0.0
16:45 21.9 15.7 68 1016.4 6.9 NW 8.3 0.0 0.0
16:46 21.9 15.7 68 1016.3 7.6 NW 8.3 0.0 0.0
16:47 21.8 15.6 68 1016.4 6.9 NW 8.3 0.0 0.0
16:48 21.8 15.6 68 1016.4 6.9 NW 7.6 0.0 0.0
16:50 21.7 15.8 69 1016.3 8.3 W 8.3 0.0 0.0
16:51 21.7 15.6 68 1016.5 10.7 W 10.7 0.0 0.0
16:52 21.6 15.5 68 1016.6 9.2 SW 10.7 0.0 0.0
16:53 21.5 15.4 68 1016.2 6.9 W 10.7 0.0 0.0
16:54 21.5 15.6 69 1016.4 6.9 SW 10.7 0.0 0.0
16:55 21.5 15.6 69 1016.4 6.0 N 10.7 0.0 0.0
16:56 21.5 15.6 69 1016.5 8.3 S 10.7 0.0 0.0
16:57 21.5 15.6 69 1016.4 6.0 NW 10.7 0.0 0.0
16:58 21.5 15.6 69 1016.6 6.9 N 10.7 0.0 0.0
16:59 21.4 15.3 68 1016.5 6.0 NW 10.7 0.0 0.0
17:00 21.4 15.3 68 1016.4 6.0 NW 10.7 0.0 0.0
17:01 21.4 15.3 68 1016.4 6.0 NW 10.7 0.0 0.0
17:02 21.4 15.3 68 1016.4 6.0 NW 8.3 0.0 0.0
17:03 21.4 15.3 68 1016.5 6.0 NW 8.3 0.0 0.0
17:05 20.9 15.0 69 1016.5 6.0 S 8.3 0.0 0.0
17:06 20.9 15.0 69 1016.3 6.9 NW 6.9 0.0 0.0
17:07 20.8 15.1 70 1016.4 5.4 WNW 6.9 0.0 0.0
17:08 20.8 15.1 70 1016.5 5.4 NW 6.9 0.0 0.0
17:09 20.8 15.1 70 1016.4 6.9 NW 6.9 0.0 0.0
17:10 20.7 15.0 70 1016.4 7.6 NW 7.6 0.0 0.0
17:11 20.7 15.3 71 1016.4 7.6 ESE 7.6 0.0 0.0
17:12 20.7 15.3 71 1016.6 4.5 NW 7.6 0.0 0.0
17:13 20.7 15.3 71 1016.4 6.9 SW 7.6 0.0 0.0
17:14 20.7 15.3 71 1016.5 4.5 N 7.6 0.0 0.0
17:15 20.8 15.6 72 1016.6 6.9 W 7.6 0.0 0.0
17:16 20.9 15.7 72 1016.6 6.9 WNW 7.6 0.0 0.0
17:17 21.0 15.8 72 1016.4 7.6 NE 7.6 0.0 0.0
17:18 21.0 15.8 72 1016.4 6.9 NW 7.6 0.0 0.0
17:19 21.0 15.8 72 1016.4 5.4 WSW 7.6 0.0 0.0
17:20 21.0 15.6 71 1016.6 7.6 SW 7.6 0.0 0.0
17:22 20.9 15.5 71 1016.4 6.9 W 7.6 0.0 0.0
17:23 20.9 15.5 71 1016.5 6.9 N 7.6 0.0 0.0
17:24 20.9 15.5 71 1016.3 5.4 E 7.6 0.0 0.0
17:25 20.8 15.4 71 1016.3 5.4 NW 7.6 0.0 0.0
17:26 20.8 15.4 71 1016.4 7.6 NNW 7.6 0.0 0.0
17:27 20.8 15.4 71 1016.5 4.5 W 7.6 0.0 0.0
17:28 20.8 15.4 71 1016.4 6.9 W 7.6 0.0 0.0
17:29 20.8 15.4 71 1016.5 6.9 NW 7.6 0.0 0.0
17:30 20.8 15.4 71 1016.3 4.5 NW 7.6 0.0 0.0
17:31 20.8 15.4 71 1016.5 5.4 SE 7.6 0.0 0.0
17:32 20.8 15.4 71 1016.5 6.9 N 7.6 0.0 0.0
17:33 20.8 15.4 71 1016.4 6.9 SW 7.6 0.0 0.0
17:34 20.7 15.3 71 1016.5 5.4 SW 7.6 0.0 0.0
17:35 20.7 15.3 71 1016.6 4.5 W 7.6 0.0 0.0
17:36 20.7 15.3 71 1016.6 6.9 NW 7.6 0.0 0.0
17:37 20.8 15.4 71 1016.6 5.4 W 6.9 0.0 0.0
17:39 20.7 15.0 70 1016.4 6.0 N 6.9 0.0 0.0
17:40 20.7 15.0 70 1016.6 4.5 N 6.9 0.0 0.0
17:41 20.7 15.3 71 1016.4 5.4 W 6.9 0.0 0.0
17:42 20.7 15.3 71 1016.4 5.4 W 6.9 0.0 0.0
17:43 20.8 15.4 71 1016.6 4.5 W 6.9 0.0 0.0
17:44 20.8 15.4 71 1016.5 5.4 NW 6.9 0.0 0.0
17:45 20.8 15.4 71 1016.5 3.1 N 6.9 0.0 0.0
17:46 20.9 15.5 71 1016.5 6.0 W 6.9 0.0 0.0
17:47 21.0 15.6 71 1016.3 4.5 NW 6.9 0.0 0.0
17:48 21.0 15.6 71 1016.3 5.4 NW 6.0 0.0 0.0
17:49 21.0 15.6 71 1016.6 4.5 NW 6.0 0.0 0.0
17:50 21.0 15.3 70 1016.4 3.8 W 6.0 0.0 0.0
17:51 21.0 15.3 70 1016.4 5.4 N 6.0 0.0 0.0
17:52 21.0 15.3 70 1016.4 6.0 W 6.0 0.0 0.0
17:53 21.0 15.3 70 1016.3 5.4 NW 6.0 0.0 0.0
17:54 21.0 15.3 70 1016.5 5.4 W 6.0 0.0 0.0
17:55 21.0 15.3 70 1016.5 4.5 W 6.0 0.0 0.0
17:56 21.0 15.3 70 1016.6 6.9 W 6.9 0.0 0.0
17:58 20.9 15.5 71 1016.8 8.3 NW 8.3 0.0 0.0
17:59 20.8 15.4 71 1016.6 8.3 W 8.3 0.0 0.0
18:00 20.8 15.4 71 1016.4 8.3 W 8.3 0.0 0.0
18:01 20.8 15.4 71 1016.6 8.3 W 8.3 0.0 0.0
18:02 20.8 15.4 71 1016.9 8.3 W 8.3 0.0 0.0
18:03 20.8 15.4 71 1016.9 8.3 W 8.3 0.0 0.0
18:04 20.8 15.4 71 1016.6 8.3 W 8.3 0.0 0.0
18:05 20.8 15.4 71 1016.8 8.3 W 8.3 0.0 0.0
18:06 20.7 15.3 71 1016.6 8.3 W 8.3 0.0 0.0
18:07 20.6 15.2 71 1016.7 5.4 W 8.3 0.0 0.0
18:08 20.6 15.4 72 1016.7 6.0 WNW 8.3 0.0 0.0
18:09 20.6 15.4 72 1016.7 7.6 W 8.3 0.0 0.0
18:10 20.5 15.3 72 1016.8 6.9 NW 8.3 0.0 0.0
18:11 20.5 15.3 72 1016.7 8.3 NW 8.3 0.0 0.0
18:12 20.5 15.3 72 1016.8 8.3 W 8.3 0.0 0.0
18:13 20.4 15.2 72 1016.8 3.8 W 8.3 0.0 0.0
18:14 20.4 15.2 72 1016.8 3.8 W 8.3 0.0 0.0
18:15 20.4 15.2 72 1016.6 4.5 W 8.3 0.0 0.0
18:17 20.2 15.0 72 1016.6 4.5 W 8.3 0.0 0.0
18:18 20.2 15.0 72 1016.8 3.8 W 8.3 0.0 0.0
18:19 20.1 14.9 72 1016.7 5.4 W 8.3 0.0 0.0
18:20 20.0 14.8 72 1016.7 5.4 W 8.3 0.0 0.0
18:21 20.0 14.8 72 1016.8 4.5 SW 8.3 0.0 0.0
18:22 19.9 14.7 72 1016.7 3.8 NW 8.3 0.0 0.0
18:23 19.8 14.6 72 1016.9 6.9 W 6.9 0.0 0.0
18:24 19.8 14.6 72 1016.6 5.4 NW 6.9 0.0 0.0
18:25 19.7 14.5 72 1016.6 3.8 W 6.9 0.0 0.0
18:26 19.7 14.7 73 1016.8 3.8 NW 6.9 0.0 0.0
18:27 19.6 14.6 73 1016.8 4.5 SW 6.9 0.0 0.0
18:28 19.5 14.5 73 1016.8 5.4 W 6.9 0.0 0.0
18:29 19.5 14.5 73 1016.6 5.4 W 6.9 0.0 0.0
18:30 19.4 14.7 74 1016.9 6.0 SW 6.9 0.0 0.0
18:31 19.3 14.6 74 1016.8 5.4 W 6.9 0.0 0.0
18:32 19.2 14.5 74 1016.7 5.4 W 6.9 0.0 0.0
18:33 19.1 14.4 74 1016.9 4.5 N 7.6 0.0 0.0
18:34 19.1 14.6 75 1016.8 4.5 W 7.6 0.0 0.0
18:36 19.0 14.5 75 1016.8 4.5 S 7.6 0.0 0.0
18:37 18.9 14.6 76 1016.8 4.5 W 7.6 0.0 0.0
18:38 18.8 14.5 76 1016.8 4.5 W 7.6 0.0 0.0
18:39 18.8 14.7 77 1016.8 6.0 W 7.6 0.0 0.0
18:40 18.7 14.6 77 1016.8 5.4 NW 7.6 0.0 0.0
18:41 18.7 14.6 77 1016.9 4.5 SW 7.6 0.0 0.0
18:42 18.6 14.5 77 1017.2 4.5 W 7.6 0.0 0.0
18:43 18.5 14.6 78 1016.9 5.4 SW 7.6 0.0 0.0
18:44 18.5 14.6 78 1017.0 5.4 NW 6.0 0.0 0.0
18:45 18.4 14.5 78 1017.1 3.8 W 6.0 0.0 0.0
18:46 18.4 14.7 79 1017.1 6.0 W 6.0 0.0 0.0
18:47 18.3 14.6 79 1017.0 7.6 W 7.6 0.0 0.0
18:48 18.2 14.5 79 1016.8 5.4 NW 7.6 0.0 0.0
18:49 18.2 14.5 79 1016.9 6.9 W 7.6 0.0 0.0
18:50 18.1 14.4 79 1017.0 3.1 W 7.6 0.0 0.0
18:51 18.1 14.4 79 1016.7 3.1 W 7.6 0.0 0.0
18:52 18.1 14.4 79 1017.2 3.1 NW 7.6 0.0 0.0
18:54 18.1 14.6 80 1017.1 5.4 SW 7.6 0.0 0.0
18:55 18.1 14.6 80 1016.9 5.4 W 7.6 0.0 0.0
18:56 18.0 14.5 80 1016.7 6.0 NW 7.6 0.0 0.0
18:57 18.0 14.5 80 1017.0 5.4 NW 7.6 0.0 0.0
18:58 18.0 14.5 80 1016.9 3.1 WNW 6.9 0.0 0.0
18:59 18.0 14.5 80 1017.0 5.4 NW 6.9 0.0 0.0
19:00 18.0 14.5 80 1017.0 5.4 NW 6.0 0.0 0.0
19:01 18.0 14.5 80 1016.9 5.4 NW 6.0 0.0 0.0
19:02 18.0 14.5 80 1016.9 5.4 NW 6.0 0.0 0.0
19:03 17.9 14.4 80 1017.0 3.8 NW 6.0 0.0 0.0
19:04 17.9 14.4 80 1016.9 3.1 N 6.0 0.0 0.0
19:05 17.9 14.4 80 1017.1 2.2 W 6.0 0.0 0.0
19:06 17.9 14.4 80 1016.6 3.1 W 5.4 0.0 0.0
19:07 17.9 14.4 80 1016.8 3.8 SW 5.4 0.0 0.0
19:08 17.9 14.4 80 1016.9 3.8 W 5.4 0.0 0.0
19:09 17.8 14.3 80 1016.8 3.1 N 5.4 0.0 0.0
19:11 17.8 14.3 80 1017.0 3.8 W 6.0 0.0 0.0
19:12 17.8 14.3 80 1016.8 2.2 NW 6.0 0.0 0.0
19:13 17.7 14.2 80 1016.9 3.1 W 6.0 0.0 0.0
19:14 17.7 14.2 80 1017.1 6.0 NW 6.0 0.0 0.0
19:15 17.7 14.2 80 1017.1 6.0 W 6.0 0.0 0.0
19:16 17.6 14.1 80 1017.1 1.6 SW 6.0 0.0 0.0
19:18 17.6 14.1 80 1017.0 4.5 WNW 6.0 0.0 0.0
19:19 17.5 14.0 80 1017.0 3.8 W 6.0 0.0 0.0
19:20 17.5 14.0 80 1017.1 3.8 WNW 6.0 0.0 0.0
19:21 17.5 14.0 80 1017.0 3.8 W 6.0 0.0 0.0
19:22 17.5 14.2 81 1016.8 3.1 NW 6.0 0.0 0.0
19:23 17.4 14.5 83 1016.9 3.1 N 6.0 0.0 0.0
19:24 17.4 14.5 83 1017.1 3.1 SW 6.0 0.0 0.0
19:25 17.3 14.6 84 1017.1 6.0 N 6.0 0.0 0.0
19:26 17.3 14.6 84 1017.0 6.0 NW 6.0 0.0 0.0
19:28 17.3 14.6 84 1017.3 2.2 W 6.0 0.0 0.0
19:29 17.2 14.5 84 1017.1 3.8 NW 6.0 0.0 0.0
19:30 17.2 14.5 84 1017.1 3.8 NW 6.0 0.0 0.0
19:31 17.2 14.5 84 1017.0 6.0 W 6.0 0.0 0.0
19:32 17.1 14.4 84 1017.3 3.8 NW 6.0 0.0 0.0
19:33 17.1 14.4 84 1017.4 3.1 W 6.0 0.0 0.0
19:34 17.1 14.4 84 1017.2 3.1 W 6.0 0.0 0.0
19:35 17.0 14.3 84 1017.0 3.8 W 6.0 0.0 0.0
19:36 17.0 14.3 84 1017.1 3.1 NW 6.0 0.0 0.0
19:37 17.0 14.3 84 1017.3 3.8 W 6.0 0.0 0.0
19:38 16.9 14.2 84 1017.2 3.8 W 6.0 0.0 0.0
19:39 16.9 14.2 84 1017.2 2.2 W 6.0 0.0 0.0
19:40 16.8 14.1 84 1017.2 3.1 W 6.0 0.0 0.0
19:41 16.8 14.1 84 1017.2 2.2 W 6.0 0.0 0.0
19:42 16.7 14.0 84 1016.9 2.2 W 3.8 0.0 0.0
19:43 16.7 14.0 84 1017.3 1.6 W 3.8 0.0 0.0
19:44 16.7 14.0 84 1017.1 1.6 W 3.8 0.0 0.0
19:45 16.6 13.9 84 1017.0 2.2 W 3.8 0.0 0.0
19:47 16.6 13.9 84 1017.2 3.1 W 3.8 0.0 0.0
19:48 16.6 13.9 84 1017.2 3.1 SW 3.1 0.0 0.0
19:49 16.5 14.0 85 1017.1 1.6 W 3.1 0.0 0.0
19:50 16.5 14.0 85 1017.1 1.6 W 3.1 0.0 0.0
19:51 16.5 14.0 85 1017.0 1.6 NW 3.1 0.0 0.0
19:52 16.5 14.0 85 1017.2 2.2 W 3.1 0.0 0.0
19:53 16.4 13.9 85 1017.3 2.2 W 3.1 0.0 0.0
19:54 16.4 13.9 85 1017.2 2.2 W 3.1 0.0 0.0
19:55 16.4 13.9 85 1017.4 3.1 W 3.1 0.0 0.0
19:56 16.4 13.9 85 1017.0 1.6 W 3.1 0.0 0.0
19:57 16.3 13.8 85 1017.2 1.6 W 3.1 0.0 0.0
19:58 16.3 13.8 85 1017.1 1.6 W 3.1 0.0 0.0
19:59 16.3 13.8 85 1017.3 0.7 W 3.1 0.0 0.0
20:00 16.3 13.8 85 1017.2 0.7 W 3.1 0.0 0.0
20:01 16.3 13.8 85 1017.3 0.7 W 3.1 0.0 0.0
20:02 16.3 13.8 85 1017.2 0.7 W 3.1 0.0 0.0
20:03 16.3 13.8 85 1017.3 0.7 W 3.1 0.0 0.0
20:05 16.3 13.8 85 1017.4 0.7 W 3.1 0.0 0.0
20:06 16.2 13.7 85 1017.3 0.7 W 1.6 0.0 0.0
20:07 16.1 13.6 85 1017.2 1.6 SW 1.6 0.0 0.0
20:08 16.1 13.6 85 1017.3 1.6 W 1.6 0.0 0.0
20:09 16.1 13.6 85 1017.5 1.6 W 1.6 0.0 0.0
20:10 16.1 13.6 85 1017.1 1.6 W 1.6 0.0 0.0
20:11 16.1 13.6 85 1017.2 1.6 W 1.6 0.0 0.0
20:12 16.0 13.5 85 1017.3 1.6 W 1.6 0.0 0.0
20:13 16.0 13.5 85 1017.3 1.6 NW 1.6 0.0 0.0
20:14 16.0 13.5 85 1017.4 2.2 W 2.2 0.0 0.0
20:15 16.0 13.5 85 1017.4 1.6 NW 2.2 0.0 0.0
20:16 16.0 13.5 85 1017.4 1.6 W 2.2 0.0 0.0
20:17 16.0 13.5 85 1017.4 1.6 W 2.2 0.0 0.0
20:18 16.0 13.5 85 1017.3 2.2 NW 2.2 0.0 0.0
20:19 16.0 13.5 85 1017.5 1.6 W 2.2 0.0 0.0
20:20 16.0 13.5 85 1017.6 1.6 W 2.2 0.0 0.0
20:21 16.0 13.5 85 1017.5 2.2 W 2.2 0.0 0.0
20:22 16.0 13.5 85 1017.6 1.6 W 2.2 0.0 0.0
20:24 15.9 13.4 85 1017.3 1.6 W 2.2 0.0 0.0
20:25 15.9 13.6 86 1017.5 1.6 W 2.2 0.0 0.0
20:26 15.9 13.6 86 1017.6 1.6 W 2.2 0.0 0.0
20:27 15.9 13.6 86 1017.4 0.7 W 2.2 0.0 0.0
20:28 15.9 13.6 86 1017.7 1.6 W 2.2 0.0 0.0
20:29 15.9 13.6 86 1017.6 1.6 W 2.2 0.0 0.0
20:30 15.9 13.6 86 1017.5 1.6 W 2.2 0.0 0.0
20:31 15.9 13.6 86 1017.6 1.6 W 2.2 0.0 0.0
20:32 15.8 13.5 86 1017.5 1.6 W 1.6 0.0 0.0
20:33 15.8 13.5 86 1017.5 1.6 W 1.6 0.0 0.0
20:34 15.8 13.5 86 1017.6 1.6 W 1.6 0.0 0.0
20:35 15.8 13.5 86 1017.2 1.6 W 1.6 0.0 0.0
20:36 15.8 13.5 86 1017.2 1.6 NW 1.6 0.0 0.0
20:37 15.8 13.5 86 1017.5 1.6 W 1.6 0.0 0.0
20:38 15.7 13.4 86 1017.4 0.7 W 1.6 0.0 0.0
20:39 15.7 13.4 86 1017.5 0.7 W 1.6 0.0 0.0
20:40 15.7 13.4 86 1017.4 1.6 W 1.6 0.0 0.0
20:41 15.7 13.4 86 1017.6 1.6 W 1.6 0.0 0.0
20:43 15.7 13.4 86 1017.4 1.6 W 1.6 0.0 0.0
20:44 15.7 13.4 86 1017.6 1.6 W 1.6 0.0 0.0
20:45 15.6 13.3 86 1017.6 1.6 W 1.6 0.0 0.0
20:46 15.6 13.3 86 1017.6 1.6 W 1.6 0.0 0.0
20:47 15.6 13.3 86 1017.6 0.7 W 1.6 0.0 0.0
20:48 15.6 13.3 86 1017.6 0.7 NW 1.6 0.0 0.0
20:49 15.6 13.3 86 1017.7 1.6 NW 1.6 0.0 0.0
20:50 15.6 13.3 86 1017.7 1.6 W 1.6 0.0 0.0
20:51 15.6 13.3 86 1017.6 1.6 W 1.6 0.0 0.0
20:52 15.6 13.3 86 1017.7 2.2 W 2.2 0.0 0.0
20:53 15.6 13.3 86 1017.7 2.2 W 2.2 0.0 0.0
20:54 15.6 13.5 87 1017.7 0.7 WNW 2.2 0.0 0.0
20:55 15.6 13.5 87 1017.5 1.6 W 2.2 0.0 0.0
20:56 15.6 13.5 87 1017.7 1.6 W 2.2 0.0 0.0
20:57 15.6 13.5 87 1017.7 0.7 W 2.2 0.0 0.0
20:58 15.6 13.5 87 1017.7 0.7 W 2.2 0.0 0.0
20:59 15.6 13.5 87 1017.4 0.7 W 2.2 0.0 0.0
21:00 15.6 13.5 87 1017.8 0.7 W 2.2 0.0 0.0
21:02 15.6 13.5 87 1017.7 0.7 W 2.2 0.0 0.0
21:03 15.6 13.5 87 1017.7 0.7 W 1.6 0.0 0.0
21:04 15.6 13.5 87 1017.8 0.7 W 1.6 0.0 0.0
21:05 15.6 13.5 87 1017.9 0.7 W 1.6 0.0 0.0
21:06 15.6 13.5 87 1018.1 0.7 W 1.6 0.0 0.0
21:07 15.5 13.4 87 1017.7 3.1 SW 3.1 0.0 0.0
21:08 15.5 13.4 87 1017.8 3.1 W 3.1 0.0 0.0
21:09 15.5 13.4 87 1017.7 3.1 W 3.1 0.0 0.0
21:10 15.5 13.4 87 1017.5 1.6 W 3.1 0.0 0.0
21:11 15.5 13.4 87 1017.7 3.1 NW 3.1 0.0 0.0
21:12 15.5 13.5 88 1017.7 3.1 W 3.1 0.0 0.0
21:13 15.5 13.5 88 1017.8 3.8 NW 3.8 0.0 0.0
21:14 15.5 13.5 88 1017.6 3.8 W 3.8 0.0 0.0
21:16 15.5 13.5 88 1017.7 2.2 NW 3.8 0.0 0.0
21:17 15.5 13.5 88 1017.7 1.6 W 3.8 0.0 0.0
21:18 15.5 13.5 88 1017.7 1.6 W 3.8 0.0 0.0
21:19 15.5 13.5 88 1017.8 2.2 NW 3.8 0.0 0.0
21:20 15.5 13.5 88 1017.9 2.2 NW 3.8 0.0 0.0
21:21 15.5 13.7 89 1017.7 2.2 W 3.8 0.0 0.0
21:22 15.5 13.7 89 1017.8 3.1 SW 3.8 0.0 0.0
21:23 15.5 13.7 89 1017.6 3.1 W 3.8 0.0 0.0
21:24 15.5 13.7 89 1017.8 3.1 NW 3.1 0.0 0.0
21:25 15.5 13.7 89 1017.8 3.1 W 3.1 0.0 0.0
21:26 15.5 13.7 89 1017.8 3.1 NW 3.1 0.0 0.0
21:27 15.5 13.7 89 1017.8 3.1 SW 3.1 0.0 0.0
21:28 15.5 13.7 89 1017.9 3.1 W 3.1 0.0 0.0
21:29 15.5 13.7 89 1017.8 3.1 SW 3.1 0.0 0.0
21:30 15.5 13.7 89 1017.8 3.1 NW 3.1 0.0 0.0
21:31 15.5 13.7 89 1017.8 3.1 W 3.1 0.0 0.0
21:33 15.6 13.8 89 1017.9 3.1 W 3.1 0.0 0.0
21:34 15.6 13.8 89 1017.9 3.8 W 3.8 0.0 0.0
21:35 15.6 13.8 89 1017.9 3.8 NW 3.8 0.0 0.0
21:36 15.6 13.8 89 1017.9 3.1 N 3.8 0.0 0.0
21:37 15.6 13.8 89 1017.9 3.1 N 3.8 0.0 0.0
21:38 15.6 14.0 90 1017.9 4.5 W 4.5 0.0 0.0
21:39 15.6 14.0 90 1018.0 3.1 W 4.5 0.0 0.0
21:40 15.6 14.0 90 1017.8 3.1 W 4.5 0.0 0.0
21:41 15.6 14.0 90 1018.0 4.5 W 4.5 0.0 0.0
21:42 15.6 14.0 90 1017.9 3.8 SW 4.5 0.0 0.0
21:43 15.6 14.0 90 1017.7 3.1 W 4.5 0.0 0.0
21:44 15.6 14.0 90 1017.8 3.8 W 4.5 0.0 0.0
21:45 15.6 14.0 90 1017.6 3.1 W 4.5 0.0 0.0
21:46 15.6 14.0 90 1017.8 3.8 NW 4.5 0.0 0.0
21:47 15.6 14.0 90 1017.9 3.1 W 4.5 0.0 0.0
21:48 15.6 14.0 90 1017.8 5.4 W 5.4 0.0 0.0
21:49 15.7 14.1 90 1018.0 3.1 W 5.4 0.0 0.0
21:50 15.7 14.1 90 1017.7 3.1 W 5.4 0.0 0.0
21:52 15.7 14.1 90 1017.9 3.1 W 5.4 0.0 0.0
21:53 15.7 14.1 90 1017.8 3.8 NW 5.4 0.0 0.0
21:54 15.7 14.1 90 1017.8 3.8 NW 5.4 0.0 0.0
21:55 15.7 14.1 90 1017.8 3.1 W 5.4 0.0 0.0
21:56 15.7 14.1 90 1018.0 3.1 NW 5.4 0.0 0.0
21:57 15.7 14.1 90 1018.0 3.1 NW 5.4 0.0 0.0
21:58 15.7 14.1 90 1017.9 3.1 NW 5.4 0.0 0.0
21:59 15.7 14.1 90 1017.7 3.1 NW 3.8 0.0 0.0
22:00 15.7 14.1 90 1017.8 3.1 W 3.8 0.0 0.0
22:01 15.7 14.1 90 1017.8 3.8 NW 3.8 0.0 0.0
22:02 15.7 14.1 90 1017.7 3.8 NW 3.8 0.0 0.0
22:03 15.7 14.1 90 1018.1 3.8 W 3.8 0.0 0.0
22:04 15.7 14.1 90 1017.7 3.8 W 3.8 0.0 0.0
22:05 15.6 14.0 90 1017.9 3.1 N 3.8 0.0 0.0
22:06 15.6 14.0 90 1017.7 2.2 W 3.8 0.0 0.0
22:07 15.6 14.0 90 1017.6 2.2 W 3.8 0.0 0.0
22:08 15.6 14.0 90 1017.6 2.2 SW 3.8 0.0 0.0
22:10 15.6 14.0 90 1017.9 1.6 NW 3.8 0.0 0.0
22:11 15.6 14.0 90 1017.9 2.2 NW 3.8 0.0 0.0
22:12 15.6 14.0 90 1017.7 2.2 NW 3.8 0.0 0.0
22:13 15.6 14.0 90 1018.0 2.2 SW 3.8 0.0 0.0
22:14 15.6 14.0 90 1017.9 2.2 SW 3.8 0.0 0.0
22:15 15.6 14.0 90 1017.8 3.1 W 3.8 0.0 0.0
22:16 15.6 14.0 90 1017.9 2.2 W 3.8 0.0 0.0
22:17 15.6 14.0 90 1017.9 2.2 NW 3.8 0.0 0.0
22:18 15.6 14.0 90 1017.8 2.2 NW 3.8 0.0 0.0
22:19 15.6 14.0 90 1018.1 3.1 W 3.8 0.0 0.0
22:20 15.6 14.0 90 1018.1 2.2 W 3.1 0.0 0.0
22:21 15.6 14.0 90 1018.0 3.1 NW 3.1 0.0 0.0
22:22 15.6 14.0 90 1018.0 3.1 NW 3.1 0.0 0.0
22:23 15.6 14.0 90 1018.0 3.1 WNW 3.1 0.0 0.0
22:24 15.5 13.9 90 1018.2 3.1 NW 3.1 0.0 0.0
22:25 15.5 13.9 90 1017.9 1.6 W 3.1 0.0 0.0
22:26 15.5 13.9 90 1017.9 3.1 W 3.1 0.0 0.0
22:27 15.5 13.9 90 1017.9 2.2 W 3.1 0.0 0.0
22:29 15.5 13.9 90 1017.9 2.2 W 3.8 0.0 0.0
22:30 15.5 13.9 90 1018.1 1.6 NW 3.8 0.0 0.0
22:31 15.5 13.9 90 1018.0 2.2 W 3.8 0.0 0.0
22:32 15.5 13.9 90 1018.0 2.2 SW 3.8 0.0 0.0
22:33 15.5 13.9 90 1017.8 3.1 W 3.8 0.0 0.0
22:34 15.5 13.9 90 1018.1 3.1 NW 3.8 0.0 0.0
22:35 15.5 13.9 90 1018.1 1.6 W 3.8 0.0 0.0
22:36 15.5 13.9 90 1017.9 1.6 W 3.8 0.0 0.0
22:37 15.5 13.9 90 1017.8 2.2 W 3.8 0.0 0.0
22:38 15.5 13.9 90 1017.9 1.6 NW 3.8 0.0 0.0
22:39 15.5 13.9 90 1018.0 2.2 N 3.8 0.0 0.0
22:40 15.5 13.9 90 1017.8 2.2 N 3.1 0.0 0.0
22:41 15.5 13.9 90 1017.7 1.6 NW 3.1 0.0 0.0
22:42 15.5 13.9 90 1018.0 1.6 NW 3.1 0.0 0.0
22:43 15.4 13.8 90 1017.8 1.6 NW 3.1 0.0 0.0
22:44 15.4 13.8 90 1017.9 1.6 NW 2.2 0.0 0.0
22:45 15.4 13.8 90 1017.8 3.1 W 3.1 0.0 0.0
22:47 15.4 13.8 90 1018.0 1.6 W 3.1 0.0 0.0
22:48 15.4 13.8 90 1017.8 2.2 NW 3.1 0.0 0.0
22:49 15.4 13.8 90 1017.9 3.1 W 3.1 0.0 0.0
22:50 15.4 13.8 90 1017.9 3.1 W 3.1 0.0 0.0
22:51 15.4 13.8 90 1017.9 2.2 NW 3.1 0.0 0.0
22:52 15.4 13.8 90 1017.9 2.2 NW 3.1 0.0 0.0
22:53 15.4 13.8 90 1018.1 2.2 NW 3.1 0.0 0.0
22:54 15.4 13.8 90 1017.9 1.6 W 3.1 0.0 0.0
22:55 15.3 13.7 90 1017.8 2.2 W 3.1 0.0 0.0
22:56 15.3 13.7 90 1017.7 2.2 W 3.1 0.0 0.0
22:57 15.3 13.7 90 1017.8 2.2 W 3.1 0.0 0.0
22:58 15.3 13.7 90 1017.9 1.6 W 3.1 0.0 0.0
22:59 15.3 13.7 90 1017.9 1.6 W 3.1 0.0 0.0
23:00 15.3 13.7 90 1017.8 1.6 W 2.2 0.0 0.0
23:01 15.3 13.7 90 1017.9 1.6 W 2.2 0.0 0.0
23:02 15.3 13.7 90 1017.7 1.6 W 2.2 0.0 0.0
23:03 15.3 13.7 90 1018.0 1.6 W 2.2 0.0 0.0
23:04 15.3 13.7 90 1017.9 1.6 W 2.2 0.0 0.0
23:06 15.2 13.6 90 1017.8 2.2 W 2.2 0.0 0.0
23:07 15.2 13.6 90 1018.0 2.2 W 2.2 0.0 0.0
23:08 15.2 13.6 90 1017.7 2.2 W 2.2 0.0 0.0
23:09 15.2 13.6 90 1018.0 3.1 SW 3.1 0.0 0.0
23:10 15.2 13.6 90 1018.0 3.1 W 3.1 0.0 0.0
23:11 15.2 13.6 90 1017.9 3.1 W 3.1 0.0 0.0
23:12 15.2 13.6 90 1018.1 3.1 W 3.1 0.0 0.0
23:13 15.1 13.5 90 1018.0 3.1 SW 3.1 0.0 0.0
23:14 15.1 13.5 90 1017.7 3.1 W 3.1 0.0 0.0
23:15 15.1 13.5 90 1018.0 3.1 W 3.1 0.0 0.0
23:16 15.1 13.5 90 1018.0 3.1 W 3.1 0.0 0.0
23:17 15.1 13.5 90 1018.1 2.2 W 3.1 0.0 0.0
23:18 15.1 13.5 90 1018.0 3.1 NW 3.1 0.0 0.0
23:19 15.1 13.5 90 1018.0 1.6 WNW 3.1 0.0 0.0
23:20 15.1 13.5 90 1017.8 1.6 WNW 3.1 0.0 0.0
23:21 15.1 13.5 90 1018.0 2.2 W 3.1 0.0 0.0
23:22 15.0 13.4 90 1017.8 2.2 W 3.1 0.0 0.0
23:23 15.0 13.4 90 1017.9 2.2 W 3.1 0.0 0.0
23:24 15.0 13.4 90 1018.1 2.2 W 3.1 0.0 0.0
23:25 15.0 13.4 90 1017.8 3.1 NW 3.1 0.0 0.0
23:26 15.0 13.4 90 1018.0 3.1 W 3.1 0.0 0.0
23:27 15.0 13.2 89 1017.8 3.1 W 3.1 0.0 0.0
23:28 15.0 13.2 89 1017.9 3.1 NW 3.1 0.0 0.0
23:29 15.0 13.2 89 1018.1 2.2 W 3.1 0.0 0.0
23:30 15.0 13.2 89 1018.0 2.2 NW 3.1 0.0 0.0
23:31 15.0 13.2 89 1017.9 3.1 W 3.1 0.0 0.0
23:32 15.0 13.2 89 1017.9 2.2 W 3.1 0.0 0.0
23:33 14.9 13.1 89 1017.9 3.1 NW 3.1 0.0 0.0
23:34 14.9 13.1 89 1018.0 2.2 W 3.1 0.0 0.0
23:36 14.9 13.1 89 1018.0 3.1 W 3.1 0.0 0.0
23:37 14.9 13.1 89 1018.0 3.8 NW 3.8 0.0 0.0
23:38 14.9 13.1 89 1018.0 3.8 W 3.8 0.0 0.0
23:39 14.9 13.1 89 1018.1 3.1 W 3.8 0.0 0.0
23:40 14.8 13.0 89 1018.0 3.1 W 3.8 0.0 0.0
23:41 14.8 13.0 89 1018.0 3.1 W 3.8 0.0 0.0
23:42 14.8 13.0 89 1018.0 3.8 W 3.8 0.0 0.0
23:43 14.8 13.0 89 1018.1 2.2 W 3.8 0.0 0.0
23:44 14.8 13.0 89 1018.0 2.2 W 3.8 0.0 0.0
23:45 14.8 13.0 89 1018.1 2.2 W 3.8 0.0 0.0
23:46 14.8 13.0 89 1018.1 2.2 W 3.8 0.0 0.0
23:47 14.8 13.0 89 1018.1 3.1 SW 3.8 0.0 0.0
23:48 14.8 13.0 89 1018.0 2.2 W 3.8 0.0 0.0
23:49 14.8 13.0 89 1018.0 2.2 W 3.8 0.0 0.0
23:50 14.8 13.0 89 1018.0 2.2 W 3.8 0.0 0.0
23:51 14.8 13.0 89 1018.1 2.2 W 3.8 0.0 0.0
23:53 14.8 13.0 89 1018.3 3.8 NW 3.8 0.0 0.0
23:54 14.7 12.9 89 1018.0 3.1 W 3.8 0.0 0.0
23:55 14.7 12.9 89 1017.9 3.1 W 3.8 0.0 0.0
23:56 14.7 12.9 89 1018.0 3.1 W 3.8 0.0 0.0
23:57 14.7 12.9 89 1018.0 3.1 W 3.8 0.0 0.0
23:58 14.7 12.9 89 1018.1 2.2 NW 3.8 0.0 0.0
23:59 14.7 12.9 89 1018.1 3.1 NW 3.8 0.0 0.0

 

 

UK - WEATHER STATION TOPSITES - UK World Weather Websites

Copyright © Carnkie Weather 2009 - 2021.